| time (UTC) | temp F | wind direction | speed MPH | gust MPH | rain 1hr in | rain 24hr in | rain mn in | humidity % | barometer mb |
| 20260901020406 | 88 | 112 | 2.0 | 3.0 | 0.00 | 0.00 | 0.00 | 45 | 1013.2 |
| 20260901020305 | 88 | 112 | 2.0 | 4.0 | 0.00 | 0.00 | 0.00 | 45 | 1013.2 |
| 20260901020106 | 88 | 112 | 2.0 | 4.0 | 0.00 | 0.00 | 0.00 | 45 | 1013.2 |
| 20260901020005 | 88 | 111 | 2.0 | 4.0 | 0.00 | 0.00 | 0.00 | 45 | 1013.1 |
| 20260901015906 | 88 | 111 | 2.0 | 4.0 | 0.00 | 0.00 | 0.00 | 45 | 1013.1 |
| 20260901015805 | 88 | 111 | 2.0 | 4.0 | 0.00 | 0.00 | 0.00 | 45 | 1013.1 |
| 20260901015605 | 88 | 110 | 2.0 | 4.0 | 0.00 | 0.00 | 0.00 | 45 | 1013.0 |
| 20260901015506 | 88 | 110 | 2.0 | 4.0 | 0.00 | 0.00 | 0.00 | 45 | 1013.0 |
| 20260901015306 | 88 | 112 | 2.0 | 3.0 | 0.00 | 0.00 | 0.00 | 45 | 1013.0 |
| 20260901015206 | 88 | 113 | 2.0 | 3.0 | 0.00 | 0.00 | 0.00 | 45 | 1013.0 |
| 20260901015106 | 88 | 113 | 2.0 | 3.0 | 0.00 | 0.00 | 0.00 | 44 | 1013.0 |
| 20260901015006 | 88 | 115 | 2.0 | 3.0 | 0.00 | 0.00 | 0.00 | 44 | 1013.0 |
| 20260901014905 | 88 | 117 | 2.0 | 3.0 | 0.00 | 0.00 | 0.00 | 44 | 1013.0 |
| 20260901014806 | 88 | 119 | 2.0 | 3.0 | 0.00 | 0.00 | 0.00 | 44 | 1012.9 |
| 20260901014705 | 88 | 122 | 2.0 | 3.0 | 0.00 | 0.00 | 0.00 | 44 | 1013.0 |
| 20260901014405 | 89 | 126 | 1.0 | 3.0 | 0.00 | 0.00 | 0.00 | 44 | 1013.0 |
| 20260901014306 | 89 | 126 | 1.0 | 3.0 | 0.00 | 0.00 | 0.00 | 43 | 1012.9 |
| 20260901014206 | 89 | 128 | 1.0 | 3.0 | 0.00 | 0.00 | 0.00 | 43 | 1012.9 |
| 20260901014105 | 89 | 128 | 1.0 | 4.0 | 0.00 | 0.00 | 0.00 | 43 | 1013.0 |
| 20260901014006 | 89 | 126 | 1.0 | 4.0 | 0.00 | 0.00 | 0.00 | 43 | 1013.0 |
| 20260901013905 | 89 | 125 | 1.0 | 4.0 | 0.00 | 0.00 | 0.00 | 43 | 1013.0 |
| 20260901013806 | 89 | 123 | 2.0 | 4.0 | 0.00 | 0.00 | 0.00 | 43 | 1013.0 |
| 20260901013706 | 89 | 121 | 2.0 | 4.0 | 0.00 | 0.00 | 0.00 | 43 | 1012.9 |
| 20260901013605 | 89 | 120 | 2.0 | 4.0 | 0.00 | 0.00 | 0.00 | 43 | 1012.9 |
| 20260901013506 | 89 | 118 | 2.0 | 4.0 | 0.00 | 0.00 | 0.00 | 43 | 1013.0 |
| 20260901013306 | 89 | 118 | 2.0 | 5.0 | 0.00 | 0.00 | 0.00 | 43 | 1012.9 |
| 20260901013205 | 89 | 117 | 2.0 | 6.0 | 0.00 | 0.00 | 0.00 | 43 | 1012.9 |
| 20260901013106 | 89 | 116 | 2.0 | 6.0 | 0.00 | 0.00 | 0.00 | 42 | 1012.8 |
| 20260901013005 | 90 | 116 | 3.0 | 6.0 | 0.00 | 0.00 | 0.00 | 42 | 1012.8 |
| 20260901012906 | 90 | 117 | 3.0 | 6.0 | 0.00 | 0.00 | 0.00 | 42 | 1012.8 |
| 20260901012806 | 90 | 117 | 3.0 | 6.0 | 0.00 | 0.00 | 0.00 | 42 | 1012.8 |
| 20260901012706 | 90 | 116 | 3.0 | 6.0 | 0.00 | 0.00 | 0.00 | 42 | 1012.7 |
| 20260901012605 | 90 | 116 | 3.0 | 6.0 | 0.00 | 0.00 | 0.00 | 42 | 1012.7 |
| 20260901012405 | 90 | 117 | 3.0 | 6.0 | 0.00 | 0.00 | 0.00 | 42 | 1012.7 |
| 20260901012306 | 90 | 117 | 3.0 | 6.0 | 0.00 | 0.00 | 0.00 | 42 | 1012.7 |
| 20260901012205 | 90 | 116 | 3.0 | 6.0 | 0.00 | 0.00 | 0.00 | 42 | 1012.7 |
| 20260901012106 | 90 | 117 | 3.0 | 6.0 | 0.00 | 0.00 | 0.00 | 42 | 1012.7 |
| 20260901012006 | 90 | 116 | 3.0 | 6.0 | 0.00 | 0.00 | 0.00 | 43 | 1012.8 |
| 20260901011906 | 90 | 116 | 3.0 | 6.0 | 0.00 | 0.00 | 0.00 | 42 | 1012.7 |
| 20260901011806 | 90 | 116 | 3.0 | 6.0 | 0.00 | 0.00 | 0.00 | 42 | 1012.7 |
| 20260901011706 | 90 | 116 | 3.0 | 5.0 | 0.00 | 0.00 | 0.00 | 42 | 1012.7 |
| 20260901011506 | 90 | 115 | 4.0 | 5.0 | 0.00 | 0.00 | 0.00 | 42 | 1012.6 |
| 20260901011405 | 90 | 114 | 4.0 | 5.0 | 0.00 | 0.00 | 0.00 | 42 | 1012.6 |
| 20260901011306 | 90 | 114 | 4.0 | 8.0 | 0.00 | 0.00 | 0.00 | 42 | 1012.6 |
| 20260901011206 | 90 | 114 | 4.0 | 8.0 | 0.00 | 0.00 | 0.00 | 42 | 1012.7 |
| 20260901011107 | 90 | 112 | 4.0 | 8.0 | 0.00 | 0.00 | 0.00 | 42 | 1012.7 |
| 20260901011006 | 91 | 112 | 4.0 | 8.0 | 0.00 | 0.00 | 0.00 | 42 | 1012.7 |
| 20260901010805 | 91 | 110 | 4.0 | 8.0 | 0.00 | 0.00 | 0.00 | 42 | 1012.6 |
| 20260901010706 | 91 | 110 | 4.0 | 8.0 | 0.00 | 0.00 | 0.00 | 42 | 1012.6 |
| 20260901010605 | 91 | 110 | 4.0 | 8.0 | 0.00 | 0.00 | 0.00 | 42 | 1012.7 |
| 20260901010506 | 91 | 111 | 4.0 | 8.0 | 0.00 | 0.00 | 0.00 | 42 | 1012.7 |
| 20260901010405 | 91 | 112 | 4.0 | 8.0 | 0.00 | 0.00 | 0.00 | 42 | 1012.7 |
| 20260901010306 | 91 | 110 | 4.0 | 6.0 | 0.00 | 0.00 | 0.00 | 42 | 1012.6 |
| 20260901010205 | 91 | 110 | 4.0 | 6.0 | 0.00 | 0.00 | 0.00 | 41 | 1012.6 |
| 20260901010106 | 91 | 112 | 4.0 | 8.0 | 0.00 | 0.00 | 0.00 | 41 | 1012.5 |
| 20260901010006 | 91 | 113 | 4.0 | 8.0 | 0.00 | 0.00 | 0.00 | 41 | 1012.6 |
| 20260901005906 | 91 | 115 | 4.0 | 8.0 | 0.00 | 0.00 | 0.00 | 41 | 1012.6 |
| 20260901005805 | 91 | 114 | 4.0 | 8.0 | 0.00 | 0.00 | 0.00 | 41 | 1012.6 |
| 20260901005706 | 92 | 114 | 4.0 | 8.0 | 0.00 | 0.00 | 0.00 | 41 | 1012.6 |
| 20260901005606 | 92 | 113 | 4.0 | 8.0 | 0.00 | 0.00 | 0.00 | 41 | 1012.6 |
| 20260901005205 | 92 | 112 | 4.0 | 8.0 | 0.00 | 0.00 | 0.00 | 40 | 1012.6 |
| 20260901005106 | 92 | 112 | 4.0 | 8.0 | 0.00 | 0.00 | 0.00 | 40 | 1012.7 |
| 20260901005006 | 92 | 113 | 4.0 | 8.0 | 0.00 | 0.00 | 0.00 | 40 | 1012.7 |
| 20260901004706 | 92 | 116 | 4.0 | 8.0 | 0.00 | 0.00 | 0.00 | 40 | 1012.7 |
| 20260901004606 | 93 | 116 | 4.0 | 8.0 | 0.00 | 0.00 | 0.00 | 39 | 1012.6 |
| 20260901004506 | 93 | 117 | 4.0 | 8.0 | 0.00 | 0.00 | 0.00 | 39 | 1012.6 |
| 20260901004405 | 93 | 118 | 4.0 | 8.0 | 0.00 | 0.00 | 0.00 | 39 | 1012.6 |
| 20260901004306 | 93 | 119 | 4.0 | 8.0 | 0.00 | 0.00 | 0.00 | 39 | 1012.6 |
| 20260901004205 | 93 | 120 | 5.0 | 8.0 | 0.00 | 0.00 | 0.00 | 39 | 1012.7 |
| 20260901004006 | 93 | 118 | 5.0 | 11.0 | 0.00 | 0.00 | 0.00 | 39 | 1012.7 |
| 20260901003806 | 93 | 118 | 5.0 | 12.0 | 0.00 | 0.00 | 0.00 | 38 | 1012.7 |
| 20260901003705 | 93 | 117 | 5.0 | 12.0 | 0.00 | 0.00 | 0.00 | 38 | 1012.6 |
| 20260901003605 | 93 | 119 | 6.0 | 12.0 | 0.00 | 0.00 | 0.00 | 38 | 1012.7 |
| 20260901003506 | 94 | 120 | 6.0 | 12.0 | 0.00 | 0.00 | 0.00 | 38 | 1012.7 |
| 20260901003405 | 94 | 120 | 6.0 | 12.0 | 0.00 | 0.00 | 0.00 | 38 | 1012.6 |
| 20260901003306 | 94 | 119 | 6.0 | 12.0 | 0.00 | 0.00 | 0.00 | 38 | 1012.7 |
| 20260901003205 | 94 | 119 | 6.0 | 12.0 | 0.00 | 0.00 | 0.00 | 38 | 1012.6 |
| 20260901003005 | 94 | 118 | 6.0 | 12.0 | 0.00 | 0.00 | 0.00 | 38 | 1012.7 |
| 20260901002906 | 94 | 117 | 5.0 | 12.0 | 0.00 | 0.00 | 0.00 | 38 | 1012.6 |
| 20260901002805 | 94 | 116 | 6.0 | 10.0 | 0.00 | 0.00 | 0.00 | 38 | 1012.7 |
| 20260901002605 | 94 | 117 | 6.0 | 12.0 | 0.00 | 0.00 | 0.00 | 38 | 1012.6 |
| 20260901002306 | 94 | 117 | 7.0 | 12.0 | 0.00 | 0.00 | 0.00 | 37 | 1012.6 |
| 20260901002206 | 94 | 117 | 7.0 | 12.0 | 0.00 | 0.00 | 0.00 | 38 | 1012.6 |
| 20260901002106 | 94 | 117 | 7.0 | 12.0 | 0.00 | 0.00 | 0.00 | 37 | 1012.6 |
| 20260901002006 | 94 | 116 | 7.0 | 12.0 | 0.00 | 0.00 | 0.00 | 37 | 1012.6 |
| 20260901001806 | 94 | 115 | 7.0 | 12.0 | 0.00 | 0.00 | 0.00 | 37 | 1012.6 |
| 20260901001706 | 95 | 114 | 7.0 | 12.0 | 0.00 | 0.00 | 0.00 | 37 | 1012.6 |
| 20260901001605 | 95 | 114 | 7.0 | 12.0 | 0.00 | 0.00 | 0.00 | 37 | 1012.6 |
| 20260901001506 | 95 | 115 | 7.0 | 12.0 | 0.00 | 0.00 | 0.00 | 37 | 1012.5 |
| 20260901001405 | 95 | 114 | 7.0 | 12.0 | 0.00 | 0.00 | 0.00 | 37 | 1012.5 |
| 20260901001306 | 95 | 113 | 7.0 | 12.0 | 0.00 | 0.00 | 0.00 | 37 | 1012.5 |
| 20260901001206 | 95 | 113 | 7.0 | 12.0 | 0.00 | 0.00 | 0.00 | 37 | 1012.5 |
| 20260901001105 | 95 | 113 | 7.0 | 12.0 | 0.00 | 0.00 | 0.00 | 37 | 1012.5 |
| 20260901000907 | 95 | 115 | 7.0 | 12.0 | 0.00 | 0.00 | 0.00 | 36 | 1012.4 |
| 20260901000805 | 95 | 113 | 7.0 | 12.0 | 0.00 | 0.00 | 0.00 | 36 | 1012.4 |
| 20260901000705 | 95 | 112 | 7.0 | 12.0 | 0.00 | 0.00 | 0.00 | 36 | 1012.4 |
| 20260901000505 | 95 | 111 | 6.0 | 12.0 | 0.00 | 0.00 | 0.00 | 36 | 1012.5 |
| 20260901000406 | 95 | 108 | 6.0 | 12.0 | 0.00 | 0.00 | 0.00 | 36 | 1012.5 |
| 20260901000305 | 95 | 107 | 6.0 | 11.0 | 0.00 | 0.00 | 0.00 | 36 | 1012.5 |
| 20260901000206 | 96 | 105 | 6.0 | 11.0 | 0.00 | 0.00 | 0.00 | 36 | 1012.5 |
| 20260901000106 | 96 | 103 | 6.0 | 11.0 | 0.00 | 0.00 | 0.00 | 36 | 1012.5 |
| 20260901000005 | 96 | 102 | 6.0 | 11.0 | 0.00 | 0.00 | 0.00 | 36 | 1012.5 |
| 20260831235905 | 96 | 100 | 6.0 | 11.0 | 0.00 | 0.00 | 0.00 | 36 | 1012.5 |
| 20260831235805 | 96 | 101 | 6.0 | 12.0 | 0.00 | 0.00 | 0.00 | 36 | 1012.5 |
| 20260831235705 | 96 | 103 | 6.0 | 12.0 | 0.00 | 0.00 | 0.00 | 35 | 1012.4 |
| 20260831235605 | 96 | 104 | 6.0 | 12.0 | 0.00 | 0.00 | 0.00 | 35 | 1012.4 |
| 20260831235505 | 96 | 104 | 6.0 | 12.0 | 0.00 | 0.00 | 0.00 | 35 | 1012.4 |
| 20260831235405 | 96 | 106 | 6.0 | 12.0 | 0.00 | 0.00 | 0.00 | 35 | 1012.4 |
| 20260831235306 | 96 | 109 | 7.0 | 12.0 | 0.00 | 0.00 | 0.00 | 35 | 1012.4 |
| 20260831235005 | 96 | 114 | 6.0 | 12.0 | 0.00 | 0.00 | 0.00 | 35 | 1012.4 |
| 20260831234906 | 96 | 114 | 6.0 | 12.0 | 0.00 | 0.00 | 0.00 | 34 | 1012.4 |
| 20260831234706 | 96 | 112 | 6.0 | 11.0 | 0.00 | 0.00 | 0.00 | 34 | 1012.4 |
| 20260831234605 | 96 | 112 | 6.0 | 11.0 | 0.00 | 0.00 | 0.00 | 34 | 1012.4 |
| 20260831234506 | 96 | 111 | 7.0 | 11.0 | 0.00 | 0.00 | 0.00 | 34 | 1012.5 |
| 20260831234405 | 96 | 111 | 7.0 | 12.0 | 0.00 | 0.00 | 0.00 | 34 | 1012.5 |
| 20260831234306 | 96 | 110 | 6.0 | 12.0 | 0.00 | 0.00 | 0.00 | 34 | 1012.5 |
| 20260831234205 | 96 | 108 | 6.0 | 12.0 | 0.00 | 0.00 | 0.00 | 34 | 1012.5 |
| 20260831234105 | 96 | 108 | 7.0 | 12.0 | 0.00 | 0.00 | 0.00 | 34 | 1012.5 |
| 20260831234006 | 96 | 108 | 6.0 | 12.0 | 0.00 | 0.00 | 0.00 | 34 | 1012.5 |
| 20260831233906 | 96 | 107 | 6.0 | 12.0 | 0.00 | 0.00 | 0.00 | 34 | 1012.5 |
| 20260831233806 | 96 | 107 | 6.0 | 12.0 | 0.00 | 0.00 | 0.00 | 34 | 1012.5 |
| 20260831233705 | 96 | 106 | 7.0 | 12.0 | 0.00 | 0.00 | 0.00 | 34 | 1012.5 |
| 20260831233606 | 96 | 105 | 7.0 | 12.0 | 0.00 | 0.00 | 0.00 | 34 | 1012.5 |
| 20260831233505 | 97 | 103 | 6.0 | 12.0 | 0.00 | 0.00 | 0.00 | 34 | 1012.6 |
| 20260831233405 | 97 | 101 | 6.0 | 12.0 | 0.00 | 0.00 | 0.00 | 34 | 1012.5 |
| 20260831233305 | 97 | 99 | 7.0 | 12.0 | 0.00 | 0.00 | 0.00 | 35 | 1012.5 |
| 20260831233205 | 97 | 98 | 7.0 | 12.0 | 0.00 | 0.00 | 0.00 | 35 | 1012.5 |
| 20260831233106 | 97 | 99 | 7.0 | 12.0 | 0.00 | 0.00 | 0.00 | 35 | 1012.5 |
| 20260831233006 | 97 | 99 | 7.0 | 12.0 | 0.00 | 0.00 | 0.00 | 35 | 1012.6 |
| 20260831232905 | 97 | 102 | 7.0 | 13.0 | 0.00 | 0.00 | 0.00 | 34 | 1012.5 |
| 20260831232806 | 97 | 104 | 7.0 | 13.0 | 0.00 | 0.00 | 0.00 | 34 | 1012.5 |
| 20260831232705 | 97 | 105 | 7.0 | 13.0 | 0.00 | 0.00 | 0.00 | 34 | 1012.5 |
| 20260831232606 | 97 | 107 | 7.0 | 13.0 | 0.00 | 0.00 | 0.00 | 34 | 1012.5 |
| 20260831232406 | 97 | 105 | 8.0 | 13.0 | 0.00 | 0.00 | 0.00 | 34 | 1012.6 |
| 20260831232206 | 97 | 105 | 8.0 | 14.0 | 0.00 | 0.00 | 0.00 | 34 | 1012.6 |
| 20260831232105 | 97 | 105 | 8.0 | 14.0 | 0.00 | 0.00 | 0.00 | 34 | 1012.5 |
| 20260831232005 | 97 | 105 | 8.0 | 14.0 | 0.00 | 0.00 | 0.00 | 33 | 1012.6 |
| 20260831231906 | 97 | 103 | 8.0 | 14.0 | 0.00 | 0.00 | 0.00 | 33 | 1012.5 |
| 20260831231805 | 97 | 101 | 8.0 | 14.0 | 0.00 | 0.00 | 0.00 | 33 | 1012.6 |
| 20260831231705 | 97 | 103 | 7.0 | 14.0 | 0.00 | 0.00 | 0.00 | 33 | 1012.6 |
| 20260831231605 | 97 | 103 | 7.0 | 14.0 | 0.00 | 0.00 | 0.00 | 33 | 1012.5 |
| 20260831231505 | 98 | 104 | 6.0 | 14.0 | 0.00 | 0.00 | 0.00 | 33 | 1012.5 |
| 20260831231406 | 98 | 105 | 6.0 | 14.0 | 0.00 | 0.00 | 0.00 | 33 | 1012.5 |
| 20260831231306 | 97 | 106 | 6.0 | 14.0 | 0.00 | 0.00 | 0.00 | 33 | 1012.5 |
| 20260831231105 | 97 | 102 | 6.0 | 13.0 | 0.00 | 0.00 | 0.00 | 33 | 1012.5 |
| 20260831230906 | 97 | 101 | 5.0 | 11.0 | 0.00 | 0.00 | 0.00 | 34 | 1012.6 |
| 20260831230807 | 97 | 101 | 5.0 | 11.0 | 0.00 | 0.00 | 0.00 | 34 | 1012.6 |
| 20260831230705 | 96 | 97 | 6.0 | 13.0 | 0.00 | 0.00 | 0.00 | 36 | 1012.6 |
| 20260831230605 | 96 | 97 | 6.0 | 13.0 | 0.00 | 0.00 | 0.00 | 36 | 1012.7 |
| 20260831230505 | 96 | 99 | 6.0 | 13.0 | 0.00 | 0.00 | 0.00 | 37 | 1012.6 |
| 20260831230405 | 96 | 101 | 7.0 | 13.0 | 0.00 | 0.00 | 0.00 | 36 | 1012.6 |
| 20260831230306 | 96 | 100 | 7.0 | 13.0 | 0.00 | 0.00 | 0.00 | 36 | 1012.6 |
| 20260831230105 | 96 | 99 | 7.0 | 13.0 | 0.00 | 0.00 | 0.00 | 36 | 1012.7 |
| 20260831230007 | 96 | 97 | 8.0 | 13.0 | 0.00 | 0.00 | 0.00 | 35 | 1012.6 |
| 20260831225905 | 97 | 96 | 8.0 | 13.0 | 0.00 | 0.00 | 0.00 | 35 | 1012.6 |
| 20260831225807 | 97 | 93 | 8.0 | 13.0 | 0.00 | 0.00 | 0.00 | 34 | 1012.6 |
| 20260831225705 | 98 | 90 | 8.0 | 13.0 | 0.00 | 0.00 | 0.00 | 35 | 1012.6 |
| 20260831225506 | 98 | 86 | 8.0 | 13.0 | 0.00 | 0.00 | 0.00 | 35 | 1012.6 |
| 20260831225405 | 98 | 83 | 9.0 | 13.0 | 0.00 | 0.00 | 0.00 | 34 | 1012.6 |
| 20260831225306 | 98 | 82 | 9.0 | 14.0 | 0.00 | 0.00 | 0.00 | 34 | 1012.6 |
| 20260831225206 | 98 | 84 | 9.0 | 14.0 | 0.00 | 0.00 | 0.00 | 34 | 1012.6 |
| 20260831225006 | 98 | 87 | 9.0 | 17.0 | 0.00 | 0.00 | 0.00 | 34 | 1012.6 |
| 20260831224805 | 98 | 88 | 10.0 | 17.0 | 0.00 | 0.00 | 0.00 | 34 | 1012.7 |
| 20260831224706 | 98 | 89 | 10.0 | 17.0 | 0.00 | 0.00 | 0.00 | 34 | 1012.7 |
| 20260831224605 | 98 | 90 | 10.0 | 17.0 | 0.00 | 0.00 | 0.00 | 33 | 1012.7 |
| 20260831224405 | 98 | 90 | 10.0 | 17.0 | 0.00 | 0.00 | 0.00 | 34 | 1012.7 |
| 20260831224305 | 98 | 90 | 10.0 | 17.0 | 0.00 | 0.00 | 0.00 | 33 | 1012.6 |
| 20260831224105 | 99 | 90 | 9.0 | 15.0 | 0.00 | 0.00 | 0.00 | 34 | 1012.7 |
| 20260831224006 | 99 | 89 | 9.0 | 15.0 | 0.00 | 0.00 | 0.00 | 33 | 1012.7 |
| 20260831223905 | 98 | 89 | 9.0 | 15.0 | 0.00 | 0.00 | 0.00 | 33 | 1012.7 |
| 20260831223806 | 98 | 88 | 9.0 | 15.0 | 0.00 | 0.00 | 0.00 | 33 | 1012.7 |
| 20260831223705 | 99 | 88 | 9.0 | 15.0 | 0.00 | 0.00 | 0.00 | 33 | 1012.7 |
| 20260831223505 | 99 | 86 | 9.0 | 15.0 | 0.00 | 0.00 | 0.00 | 34 | 1012.7 |
| 20260831223406 | 98 | 87 | 9.0 | 15.0 | 0.00 | 0.00 | 0.00 | 34 | 1012.7 |
| 20260831223306 | 98 | 88 | 9.0 | 15.0 | 0.00 | 0.00 | 0.00 | 34 | 1012.7 |
| 20260831223205 | 98 | 88 | 9.0 | 15.0 | 0.00 | 0.00 | 0.00 | 34 | 1012.7 |
| 20260831223106 | 98 | 86 | 9.0 | 15.0 | 0.00 | 0.00 | 0.00 | 34 | 1012.7 |
| 20260831223006 | 98 | 86 | 9.0 | 15.0 | 0.00 | 0.00 | 0.00 | 34 | 1012.7 |
| 20260831222905 | 98 | 85 | 10.0 | 15.0 | 0.00 | 0.00 | 0.00 | 34 | 1012.8 |
| 20260831222805 | 98 | 86 | 9.0 | 16.0 | 0.00 | 0.00 | 0.00 | 34 | 1012.7 |
| 20260831222706 | 99 | 86 | 9.0 | 16.0 | 0.00 | 0.00 | 0.00 | 34 | 1012.8 |
| 20260831222405 | 99 | 87 | 9.0 | 16.0 | 0.00 | 0.00 | 0.00 | 34 | 1012.8 |
| 20260831222306 | 99 | 87 | 9.0 | 16.0 | 0.00 | 0.00 | 0.00 | 34 | 1012.8 |
| 20260831222205 | 99 | 89 | 9.0 | 16.0 | 0.00 | 0.00 | 0.00 | 34 | 1012.8 |
| 20260831222105 | 99 | 91 | 8.0 | 16.0 | 0.00 | 0.00 | 0.00 | 34 | 1012.8 |
| 20260831222005 | 99 | 92 | 8.0 | 16.0 | 0.00 | 0.00 | 0.00 | 34 | 1012.8 |
| 20260831221906 | 99 | 93 | 7.0 | 16.0 | 0.00 | 0.00 | 0.00 | 34 | 1012.8 |
| 20260831221805 | 100 | 96 | 7.0 | 13.0 | 0.00 | 0.00 | 0.00 | 34 | 1012.8 |
| 20260831221705 | 100 | 99 | 7.0 | 13.0 | 0.00 | 0.00 | 0.00 | 34 | 1012.8 |
| 20260831221606 | 100 | 102 | 7.0 | 13.0 | 0.00 | 0.00 | 0.00 | 34 | 1012.9 |
| 20260831221505 | 100 | 103 | 7.0 | 13.0 | 0.00 | 0.00 | 0.00 | 34 | 1012.9 |
| 20260831221406 | 100 | 106 | 7.0 | 14.0 | 0.00 | 0.00 | 0.00 | 34 | 1012.9 |
| 20260831221305 | 100 | 107 | 7.0 | 14.0 | 0.00 | 0.00 | 0.00 | 35 | 1012.8 |
| 20260831221207 | 100 | 109 | 7.0 | 14.0 | 0.00 | 0.00 | 0.00 | 34 | 1012.9 |
| 20260831221106 | 100 | 109 | 8.0 | 14.0 | 0.00 | 0.00 | 0.00 | 33 | 1012.9 |
| 20260831221005 | 100 | 109 | 8.0 | 15.0 | 0.00 | 0.00 | 0.00 | 33 | 1012.9 |
| 20260831220906 | 99 | 109 | 9.0 | 15.0 | 0.00 | 0.00 | 0.00 | 31 | 1012.9 |
| 20260831220805 | 99 | 106 | 9.0 | 15.0 | 0.00 | 0.00 | 0.00 | 31 | 1012.9 |
| 20260831220706 | 99 | 105 | 9.0 | 15.0 | 0.00 | 0.00 | 0.00 | 34 | 1012.9 |
| 20260831220506 | 99 | 100 | 9.0 | 15.0 | 0.00 | 0.00 | 0.00 | 33 | 1012.9 |
| 20260831220405 | 100 | 98 | 8.0 | 15.0 | 0.00 | 0.00 | 0.00 | 33 | 1012.9 |
| 20260831220305 | 100 | 97 | 8.0 | 15.0 | 0.00 | 0.00 | 0.00 | 33 | 1012.9 |
| 20260831220207 | 100 | 92 | 8.0 | 15.0 | 0.00 | 0.00 | 0.00 | 33 | 1012.8 |
| 20260831220105 | 100 | 92 | 8.0 | 15.0 | 0.00 | 0.00 | 0.00 | 32 | 1012.9 |
| 20260831220006 | 100 | 93 | 8.0 | 15.0 | 0.00 | 0.00 | 0.00 | 32 | 1012.9 |
| 20260831215905 | 100 | 92 | 7.0 | 14.0 | 0.00 | 0.00 | 0.00 | 33 | 1012.9 |
| 20260831215706 | 100 | 98 | 7.0 | 14.0 | 0.00 | 0.00 | 0.00 | 32 | 1012.9 |
| 20260831215506 | 100 | 103 | 7.0 | 11.0 | 0.00 | 0.00 | 0.00 | 32 | 1012.9 |
| 20260831215206 | 100 | 118 | 7.0 | 11.0 | 0.00 | 0.00 | 0.00 | 32 | 1012.9 |
| 20260831215105 | 100 | 114 | 7.0 | 15.0 | 0.00 | 0.00 | 0.00 | 32 | 1013.0 |
| 20260831215006 | 100 | 114 | 7.0 | 16.0 | 0.00 | 0.00 | 0.00 | 33 | 1013.0 |
| 20260831214806 | 100 | 117 | 7.0 | 16.0 | 0.00 | 0.00 | 0.00 | 34 | 1013.0 |
| 20260831214705 | 100 | 117 | 7.0 | 16.0 | 0.00 | 0.00 | 0.00 | 33 | 1013.0 |
| 20260831214606 | 100 | 117 | 8.0 | 16.0 | 0.00 | 0.00 | 0.00 | 33 | 1013.0 |
| 20260831214505 | 100 | 123 | 8.0 | 16.0 | 0.00 | 0.00 | 0.00 | 33 | 1013.1 |
| 20260831214305 | 100 | 121 | 8.0 | 16.0 | 0.00 | 0.00 | 0.00 | 33 | 1013.1 |
| 20260831214105 | 100 | 129 | 7.0 | 16.0 | 0.00 | 0.00 | 0.00 | 33 | 1013.1 |
| 20260831214006 | 100 | 131 | 7.0 | 16.0 | 0.00 | 0.00 | 0.00 | 31 | 1013.1 |
| 20260831213905 | 100 | 131 | 7.0 | 16.0 | 0.00 | 0.00 | 0.00 | 31 | 1013.1 |
| 20260831213805 | 100 | 132 | 7.0 | 16.0 | 0.00 | 0.00 | 0.00 | 31 | 1013.2 |
| 20260831213705 | 100 | 132 | 6.0 | 13.0 | 0.00 | 0.00 | 0.00 | 32 | 1013.1 |
| 20260831213505 | 100 | 126 | 6.0 | 13.0 | 0.00 | 0.00 | 0.00 | 32 | 1013.1 |
| 20260831213305 | 100 | 126 | 5.0 | 13.0 | 0.00 | 0.00 | 0.00 | 33 | 1013.1 |
| 20260831213206 | 100 | 119 | 6.0 | 12.0 | 0.00 | 0.00 | 0.00 | 33 | 1013.2 |
| 20260831212905 | 99 | 132 | 6.0 | 13.0 | 0.00 | 0.00 | 0.00 | 33 | 1013.2 |
| 20260831212806 | 99 | 135 | 6.0 | 13.0 | 0.00 | 0.00 | 0.00 | 32 | 1013.2 |
| 20260831212705 | 99 | 137 | 6.0 | 13.0 | 0.00 | 0.00 | 0.00 | 32 | 1013.2 |
| 20260831212605 | 100 | 135 | 6.0 | 13.0 | 0.00 | 0.00 | 0.00 | 32 | 1013.2 |
| 20260831212505 | 100 | 135 | 6.0 | 13.0 | 0.00 | 0.00 | 0.00 | 32 | 1013.3 |
| 20260831212406 | 100 | 134 | 7.0 | 13.0 | 0.00 | 0.00 | 0.00 | 32 | 1013.3 |
| 20260831212306 | 100 | 130 | 6.0 | 13.0 | 0.00 | 0.00 | 0.00 | 32 | 1013.4 |
| 20260831212206 | 100 | 130 | 6.0 | 13.0 | 0.00 | 0.00 | 0.00 | 32 | 1013.3 |
| 20260831212105 | 100 | 130 | 6.0 | 13.0 | 0.00 | 0.00 | 0.00 | 32 | 1013.3 |
| 20260831212005 | 100 | 129 | 6.0 | 12.0 | 0.00 | 0.00 | 0.00 | 32 | 1013.3 |
| 20260831211905 | 100 | 125 | 5.0 | 11.0 | 0.00 | 0.00 | 0.00 | 32 | 1013.3 |
| 20260831211806 | 100 | 123 | 5.0 | 11.0 | 0.00 | 0.00 | 0.00 | 31 | 1013.3 |
| 20260831211705 | 99 | 122 | 5.0 | 11.0 | 0.00 | 0.00 | 0.00 | 31 | 1013.3 |
| 20260831211606 | 99 | 125 | 5.0 | 11.0 | 0.00 | 0.00 | 0.00 | 31 | 1013.3 |
| 20260831211405 | 99 | 132 | 6.0 | 11.0 | 0.00 | 0.00 | 0.00 | 32 | 1013.4 |
| 20260831211305 | 99 | 137 | 6.0 | 12.0 | 0.00 | 0.00 | 0.00 | 30 | 1013.3 |
| 20260831211206 | 99 | 138 | 6.0 | 13.0 | 0.00 | 0.00 | 0.00 | 31 | 1013.4 |
| 20260831211105 | 99 | 136 | 7.0 | 13.0 | 0.00 | 0.00 | 0.00 | 33 | 1013.5 |
| 20260831211006 | 99 | 135 | 7.0 | 13.0 | 0.00 | 0.00 | 0.00 | 33 | 1013.5 |
| 20260831210905 | 99 | 133 | 8.0 | 16.0 | 0.00 | 0.00 | 0.00 | 33 | 1013.6 |
| 20260831210705 | 99 | 134 | 8.0 | 16.0 | 0.00 | 0.00 | 0.00 | 33 | 1013.6 |
| 20260831210605 | 99 | 138 | 7.0 | 16.0 | 0.00 | 0.00 | 0.00 | 33 | 1013.6 |
| 20260831210506 | 99 | 138 | 8.0 | 16.0 | 0.00 | 0.00 | 0.00 | 33 | 1013.6 |
| 20260831210406 | 99 | 137 | 7.0 | 16.0 | 0.00 | 0.00 | 0.00 | 33 | 1013.6 |
| 20260831210305 | 99 | 135 | 8.0 | 16.0 | 0.00 | 0.00 | 0.00 | 33 | 1013.6 |
| 20260831210205 | 99 | 134 | 8.0 | 16.0 | 0.00 | 0.00 | 0.00 | 33 | 1013.6 |
| 20260831210005 | 100 | 131 | 8.0 | 16.0 | 0.00 | 0.00 | 0.00 | 33 | 1013.6 |
| 20260831205905 | 100 | 132 | 8.0 | 16.0 | 0.00 | 0.00 | 0.00 | 33 | 1013.6 |
| 20260831205805 | 100 | 131 | 8.0 | 16.0 | 0.00 | 0.00 | 0.00 | 33 | 1013.7 |
| 20260831205706 | 100 | 130 | 8.0 | 16.0 | 0.00 | 0.00 | 0.00 | 33 | 1013.7 |
| 20260831205605 | 100 | 129 | 9.0 | 16.0 | 0.00 | 0.00 | 0.00 | 33 | 1013.7 |
| 20260831205505 | 99 | 129 | 9.0 | 16.0 | 0.00 | 0.00 | 0.00 | 31 | 1013.7 |
| 20260831205405 | 99 | 130 | 8.0 | 16.0 | 0.00 | 0.00 | 0.00 | 32 | 1013.7 |
| 20260831205205 | 99 | 134 | 8.0 | 15.0 | 0.00 | 0.00 | 0.00 | 34 | 1013.8 |
| 20260831205105 | 99 | 137 | 7.0 | 15.0 | 0.00 | 0.00 | 0.00 | 33 | 1013.8 |
| 20260831205006 | 99 | 138 | 7.0 | 15.0 | 0.00 | 0.00 | 0.00 | 33 | 1013.9 |
| 20260831204905 | 99 | 141 | 7.0 | 15.0 | 0.00 | 0.00 | 0.00 | 33 | 1013.9 |
| 20260831204806 | 99 | 142 | 7.0 | 15.0 | 0.00 | 0.00 | 0.00 | 34 | 1013.9 |
| 20260831204705 | 99 | 142 | 6.0 | 15.0 | 0.00 | 0.00 | 0.00 | 34 | 1013.9 |
| 20260831204606 | 99 | 144 | 6.0 | 15.0 | 0.00 | 0.00 | 0.00 | 34 | 1013.9 |
| 20260831204505 | 99 | 148 | 7.0 | 14.0 | 0.00 | 0.00 | 0.00 | 34 | 1014.0 |
| 20260831204407 | 99 | 148 | 7.0 | 14.0 | 0.00 | 0.00 | 0.00 | 34 | 1014.0 |
| 20260831204305 | 99 | 147 | 7.0 | 14.0 | 0.00 | 0.00 | 0.00 | 34 | 1014.0 |
| 20260831204105 | 98 | 137 | 8.0 | 16.0 | 0.00 | 0.00 | 0.00 | 34 | 1014.1 |
| 20260831203905 | 98 | 130 | 8.0 | 16.0 | 0.00 | 0.00 | 0.00 | 33 | 1014.2 |
| 20260831203805 | 99 | 124 | 8.0 | 16.0 | 0.00 | 0.00 | 0.00 | 33 | 1014.2 |
| 20260831203705 | 99 | 123 | 8.0 | 16.0 | 0.00 | 0.00 | 0.00 | 34 | 1014.2 |
| 20260831203605 | 100 | 121 | 7.0 | 16.0 | 0.00 | 0.00 | 0.00 | 34 | 1014.2 |
| 20260831203505 | 100 | 114 | 7.0 | 16.0 | 0.00 | 0.00 | 0.00 | 34 | 1014.2 |
| 20260831203405 | 99 | 111 | 7.0 | 16.0 | 0.00 | 0.00 | 0.00 | 34 | 1014.3 |
| 20260831203105 | 99 | 105 | 7.0 | 16.0 | 0.00 | 0.00 | 0.00 | 35 | 1014.2 |
| 20260831203005 | 98 | 104 | 7.0 | 14.0 | 0.00 | 0.00 | 0.00 | 35 | 1014.3 |
| 20260831202805 | 98 | 105 | 7.0 | 14.0 | 0.00 | 0.00 | 0.00 | 36 | 1014.3 |
| 20260831202705 | 97 | 105 | 7.0 | 14.0 | 0.00 | 0.00 | 0.00 | 36 | 1014.2 |
| 20260831202405 | 95 | 108 | 7.0 | 14.0 | 0.00 | 0.00 | 0.00 | 38 | 1014.3 |
| 20260831202306 | 95 | 112 | 7.0 | 14.0 | 0.00 | 0.00 | 0.00 | 38 | 1014.3 |
| 20260831202205 | 95 | 117 | 7.0 | 14.0 | 0.00 | 0.00 | 0.00 | 38 | 1014.3 |
| 20260831202105 | 95 | 120 | 7.0 | 14.0 | 0.00 | 0.00 | 0.00 | 38 | 1014.3 |
| 20260831202006 | 95 | 123 | 6.0 | 14.0 | 0.00 | 0.00 | 0.00 | 38 | 1014.4 |
| 20260831201905 | 96 | 125 | 7.0 | 13.0 | 0.00 | 0.00 | 0.00 | 38 | 1014.3 |
| 20260831201806 | 96 | 126 | 7.0 | 13.0 | 0.00 | 0.00 | 0.00 | 38 | 1014.3 |
| 20260831201705 | 96 | 123 | 7.0 | 15.0 | 0.00 | 0.00 | 0.00 | 38 | 1014.3 |
| 20260831201606 | 96 | 123 | 6.0 | 15.0 | 0.00 | 0.00 | 0.00 | 38 | 1014.4 |
| 20260831201505 | 96 | 125 | 6.0 | 15.0 | 0.00 | 0.00 | 0.00 | 38 | 1014.4 |
| 20260831201405 | 97 | 125 | 7.0 | 15.0 | 0.00 | 0.00 | 0.00 | 38 | 1014.4 |
| 20260831201305 | 97 | 123 | 7.0 | 15.0 | 0.00 | 0.00 | 0.00 | 37 | 1014.4 |
| 20260831201205 | 97 | 125 | 7.0 | 15.0 | 0.00 | 0.00 | 0.00 | 37 | 1014.4 |
| 20260831201005 | 97 | 129 | 7.0 | 15.0 | 0.00 | 0.00 | 0.00 | 37 | 1014.4 |
| 20260831200705 | 99 | 145 | 7.0 | 13.0 | 0.00 | 0.00 | 0.00 | 35 | 1014.5 |
| 20260831200606 | 99 | 146 | 7.0 | 13.0 | 0.00 | 0.00 | 0.00 | 35 | 1014.5 |
| 20260831200406 | 100 | 149 | 8.0 | 17.0 | 0.00 | 0.00 | 0.00 | 35 | 1014.5 |
| 20260831200305 | 100 | 147 | 8.0 | 17.0 | 0.00 | 0.00 | 0.00 | 36 | 1014.5 |
| 20260831200105 | 99 | 138 | 9.0 | 18.0 | 0.00 | 0.00 | 0.00 | 35 | 1014.5 |
| 20260831200006 | 99 | 134 | 10.0 | 18.0 | 0.00 | 0.00 | 0.00 | 35 | 1014.5 |
| 20260831195905 | 99 | 132 | 9.0 | 18.0 | 0.00 | 0.00 | 0.00 | 35 | 1014.5 |
| 20260831195806 | 100 | 128 | 9.0 | 18.0 | 0.00 | 0.00 | 0.00 | 35 | 1014.6 |
| 20260831195605 | 100 | 130 | 8.0 | 18.0 | 0.00 | 0.00 | 0.00 | 35 | 1014.6 |
| 20260831195405 | 99 | 130 | 7.0 | 18.0 | 0.00 | 0.00 | 0.00 | 35 | 1014.5 |
| 20260831195205 | 99 | 135 | 6.0 | 18.0 | 0.00 | 0.00 | 0.00 | 35 | 1014.5 |
| 20260831195105 | 99 | 144 | 7.0 | 16.0 | 0.00 | 0.00 | 0.00 | 36 | 1014.5 |
| 20260831195005 | 99 | 153 | 6.0 | 16.0 | 0.00 | 0.00 | 0.00 | 36 | 1014.6 |
| 20260831194905 | 99 | 157 | 7.0 | 16.0 | 0.00 | 0.00 | 0.00 | 36 | 1014.6 |
| 20260831194705 | 99 | 159 | 7.0 | 16.0 | 0.00 | 0.00 | 0.00 | 35 | 1014.5 |
| 20260831194605 | 99 | 154 | 8.0 | 16.0 | 0.00 | 0.00 | 0.00 | 35 | 1014.7 |
| 20260831194505 | 99 | 151 | 8.0 | 16.0 | 0.00 | 0.00 | 0.00 | 35 | 1014.7 |
| 20260831194405 | 99 | 149 | 8.0 | 16.0 | 0.00 | 0.00 | 0.00 | 35 | 1014.7 |
| 20260831194005 | 98 | 143 | 8.0 | 16.0 | 0.00 | 0.00 | 0.00 | 36 | 1014.7 |
| 20260831193905 | 97 | 147 | 8.0 | 16.0 | 0.00 | 0.00 | 0.00 | 36 | 1014.8 |
| 20260831193805 | 97 | 149 | 8.0 | 16.0 | 0.00 | 0.00 | 0.00 | 36 | 1014.8 |
| 20260831193705 | 98 | 148 | 8.0 | 16.0 | 0.00 | 0.00 | 0.00 | 36 | 1014.8 |
| 20260831193606 | 98 | 148 | 8.0 | 16.0 | 0.00 | 0.00 | 0.00 | 35 | 1014.8 |
| 20260831193505 | 98 | 150 | 7.0 | 16.0 | 0.00 | 0.00 | 0.00 | 36 | 1014.8 |
| 20260831193406 | 99 | 149 | 7.0 | 16.0 | 0.00 | 0.00 | 0.00 | 36 | 1014.8 |
| 20260831193305 | 99 | 148 | 7.0 | 14.0 | 0.00 | 0.00 | 0.00 | 35 | 1014.8 |
| 20260831193206 | 99 | 145 | 6.0 | 14.0 | 0.00 | 0.00 | 0.00 | 34 | 1014.7 |
| 20260831193105 | 99 | 143 | 6.0 | 13.0 | 0.00 | 0.00 | 0.00 | 34 | 1014.8 |
| 20260831193005 | 99 | 139 | 6.0 | 13.0 | 0.00 | 0.00 | 0.00 | 34 | 1014.7 |
| 20260831192905 | 99 | 131 | 5.0 | 13.0 | 0.00 | 0.00 | 0.00 | 34 | 1014.8 |
| 20260831192805 | 99 | 120 | 5.0 | 12.0 | 0.00 | 0.00 | 0.00 | 36 | 1014.7 |
| 20260831192705 | 98 | 117 | 5.0 | 12.0 | 0.00 | 0.00 | 0.00 | 36 | 1014.8 |
| 20260831192605 | 98 | 118 | 5.0 | 12.0 | 0.00 | 0.00 | 0.00 | 37 | 1014.8 |
| 20260831192505 | 97 | 119 | 5.0 | 12.0 | 0.00 | 0.00 | 0.00 | 36 | 1014.8 |
| 20260831192406 | 97 | 124 | 5.0 | 12.0 | 0.00 | 0.00 | 0.00 | 37 | 1014.8 |
| 20260831192205 | 98 | 134 | 6.0 | 12.0 | 0.00 | 0.00 | 0.00 | 37 | 1014.8 |
| 20260831192105 | 98 | 140 | 6.0 | 14.0 | 0.00 | 0.00 | 0.00 | 37 | 1014.9 |
| 20260831191905 | 98 | 143 | 6.0 | 14.0 | 0.00 | 0.00 | 0.00 | 37 | 1014.8 |
| 20260831191805 | 98 | 150 | 7.0 | 14.0 | 0.00 | 0.00 | 0.00 | 37 | 1014.9 |
| 20260831191505 | 98 | 140 | 8.0 | 15.0 | 0.00 | 0.00 | 0.00 | 37 | 1014.9 |
| 20260831191406 | 98 | 135 | 9.0 | 18.0 | 0.00 | 0.00 | 0.00 | 36 | 1015.0 |
| 20260831191305 | 98 | 131 | 8.0 | 18.0 | 0.00 | 0.00 | 0.00 | 36 | 1015.1 |
| 20260831191206 | 98 | 129 | 8.0 | 18.0 | 0.00 | 0.00 | 0.00 | 36 | 1015.0 |
| 20260831191005 | 98 | 125 | 7.0 | 18.0 | 0.00 | 0.00 | 0.00 | 35 | 1015.2 |
| 20260831190905 | 98 | 121 | 7.0 | 18.0 | 0.00 | 0.00 | 0.00 | 35 | 1015.2 |
| 20260831190805 | 98 | 115 | 7.0 | 18.0 | 0.00 | 0.00 | 0.00 | 35 | 1015.0 |
| 20260831190706 | 98 | 114 | 6.0 | 18.0 | 0.00 | 0.00 | 0.00 | 36 | 1015.0 |
| 20260831190605 | 98 | 114 | 6.0 | 18.0 | 0.00 | 0.00 | 0.00 | 36 | 1015.0 |
| 20260831190406 | 98 | 112 | 5.0 | 18.0 | 0.00 | 0.00 | 0.00 | 38 | 1015.1 |
| 20260831190305 | 98 | 111 | 6.0 | 14.0 | 0.00 | 0.00 | 0.00 | 37 | 1015.1 |
| 20260831190205 | 98 | 110 | 6.0 | 14.0 | 0.00 | 0.00 | 0.00 | 37 | 1015.2 |
| 20260831190106 | 98 | 107 | 6.0 | 14.0 | 0.00 | 0.00 | 0.00 | 38 | 1015.2 |
| 20260831190006 | 98 | 103 | 7.0 | 14.0 | 0.00 | 0.00 | 0.00 | 37 | 1015.2 |
| 20260831185905 | 99 | 101 | 8.0 | 17.0 | 0.00 | 0.00 | 0.00 | 37 | 1015.2 |
| 20260831185805 | 99 | 100 | 8.0 | 17.0 | 0.00 | 0.00 | 0.00 | 37 | 1015.2 |
| 20260831185705 | 99 | 97 | 8.0 | 17.0 | 0.00 | 0.00 | 0.00 | 36 | 1015.2 |
| 20260831185505 | 99 | 96 | 8.0 | 17.0 | 0.00 | 0.00 | 0.00 | 37 | 1015.3 |
| 20260831185405 | 99 | 98 | 7.0 | 17.0 | 0.00 | 0.00 | 0.00 | 37 | 1015.2 |
| 20260831185306 | 99 | 100 | 7.0 | 17.0 | 0.00 | 0.00 | 0.00 | 36 | 1015.2 |
| 20260831185205 | 98 | 103 | 7.0 | 17.0 | 0.00 | 0.00 | 0.00 | 36 | 1015.2 |
| 20260831185104 | 98 | 107 | 6.0 | 17.0 | 0.00 | 0.00 | 0.00 | 36 | 1015.1 |
| 20260831185005 | 98 | 112 | 6.0 | 17.0 | 0.00 | 0.00 | 0.00 | 36 | 1015.2 |
| 20260831184905 | 98 | 120 | 6.0 | 15.0 | 0.00 | 0.00 | 0.00 | 36 | 1015.2 |
| 20260831184805 | 98 | 129 | 5.0 | 15.0 | 0.00 | 0.00 | 0.00 | 37 | 1015.2 |
| 20260831184605 | 97 | 143 | 5.0 | 15.0 | 0.00 | 0.00 | 0.00 | 40 | 1015.3 |
| 20260831184505 | 97 | 145 | 6.0 | 15.0 | 0.00 | 0.00 | 0.00 | 39 | 1015.3 |
| 20260831184405 | 97 | 140 | 6.0 | 15.0 | 0.00 | 0.00 | 0.00 | 40 | 1015.3 |
| 20260831184305 | 97 | 138 | 6.0 | 15.0 | 0.00 | 0.00 | 0.00 | 40 | 1015.4 |
| 20260831184205 | 97 | 137 | 7.0 | 15.0 | 0.00 | 0.00 | 0.00 | 40 | 1015.4 |
| 20260831184105 | 97 | 136 | 7.0 | 15.0 | 0.00 | 0.00 | 0.00 | 40 | 1015.5 |
| 20260831184005 | 97 | 132 | 8.0 | 15.0 | 0.00 | 0.00 | 0.00 | 38 | 1015.5 |
| 20260831183905 | 98 | 138 | 7.0 | 19.0 | 0.00 | 0.00 | 0.00 | 38 | 1015.5 |
| 20260831183805 | 98 | 140 | 7.0 | 19.0 | 0.00 | 0.00 | 0.00 | 39 | 1015.4 |
| 20260831183705 | 98 | 138 | 7.0 | 19.0 | 0.00 | 0.00 | 0.00 | 39 | 1015.5 |
| 20260831183605 | 98 | 136 | 8.0 | 19.0 | 0.00 | 0.00 | 0.00 | 38 | 1015.4 |
| 20260831183505 | 97 | 135 | 8.0 | 19.0 | 0.00 | 0.00 | 0.00 | 40 | 1015.4 |
| 20260831183406 | 97 | 138 | 7.0 | 19.0 | 0.00 | 0.00 | 0.00 | 40 | 1015.5 |
| 20260831183305 | 97 | 137 | 7.0 | 19.0 | 0.00 | 0.00 | 0.00 | 40 | 1015.5 |
| 20260831183205 | 97 | 135 | 7.0 | 19.0 | 0.00 | 0.00 | 0.00 | 41 | 1015.5 |
| 20260831183005 | 97 | 131 | 7.0 | 19.0 | 0.00 | 0.00 | 0.00 | 40 | 1015.5 |
| 20260831182805 | 97 | 121 | 6.0 | 14.0 | 0.00 | 0.00 | 0.00 | 41 | 1015.6 |
| 20260831182705 | 98 | 121 | 6.0 | 14.0 | 0.00 | 0.00 | 0.00 | 42 | 1015.6 |
| 20260831182605 | 97 | 120 | 6.0 | 14.0 | 0.00 | 0.00 | 0.00 | 42 | 1015.5 |
| 20260831182504 | 97 | 114 | 6.0 | 14.0 | 0.00 | 0.00 | 0.00 | 42 | 1015.6 |
| 20260831182405 | 96 | 111 | 7.0 | 14.0 | 0.00 | 0.00 | 0.00 | 42 | 1015.7 |
| 20260831182306 | 96 | 113 | 8.0 | 14.0 | 0.00 | 0.00 | 0.00 | 43 | 1015.7 |
| 20260831182205 | 96 | 110 | 8.0 | 15.0 | 0.00 | 0.00 | 0.00 | 43 | 1015.7 |
| 20260831182105 | 96 | 108 | 8.0 | 15.0 | 0.00 | 0.00 | 0.00 | 43 | 1015.7 |
| 20260831181905 | 96 | 102 | 8.0 | 15.0 | 0.00 | 0.00 | 0.00 | 43 | 1015.7 |
| 20260831181805 | 96 | 99 | 8.0 | 15.0 | 0.00 | 0.00 | 0.00 | 42 | 1015.7 |
| 20260831181705 | 96 | 98 | 8.0 | 15.0 | 0.00 | 0.00 | 0.00 | 43 | 1015.6 |
| 20260831181605 | 95 | 98 | 9.0 | 15.0 | 0.00 | 0.00 | 0.00 | 43 | 1015.7 |
| 20260831181305 | 96 | 97 | 8.0 | 15.0 | 0.00 | 0.00 | 0.00 | 42 | 1015.8 |
| 20260831181105 | 95 | 96 | 7.0 | 15.0 | 0.00 | 0.00 | 0.00 | 41 | 1015.7 |
| 20260831181005 | 95 | 97 | 7.0 | 15.0 | 0.00 | 0.00 | 0.00 | 42 | 1015.8 |
| 20260831180905 | 95 | 101 | 7.0 | 15.0 | 0.00 | 0.00 | 0.00 | 42 | 1015.9 |
| 20260831180805 | 95 | 104 | 7.0 | 15.0 | 0.00 | 0.00 | 0.00 | 41 | 1015.8 |
| 20260831180705 | 95 | 105 | 7.0 | 15.0 | 0.00 | 0.00 | 0.00 | 41 | 1015.8 |
| 20260831180605 | 96 | 107 | 7.0 | 15.0 | 0.00 | 0.00 | 0.00 | 41 | 1015.9 |
| 20260831180505 | 96 | 108 | 7.0 | 15.0 | 0.00 | 0.00 | 0.00 | 42 | 1016.0 |
| 20260831180405 | 96 | 111 | 7.0 | 15.0 | 0.00 | 0.00 | 0.00 | 42 | 1015.9 |
| 20260831180304 | 96 | 113 | 7.0 | 15.0 | 0.00 | 0.00 | 0.00 | 42 | 1015.9 |
| 20260831180205 | 96 | 115 | 7.0 | 15.0 | 0.00 | 0.00 | 0.00 | 43 | 1015.9 |
| 20260831180105 | 95 | 113 | 7.0 | 14.0 | 0.00 | 0.00 | 0.00 | 43 | 1016.0 |
| 20260831180005 | 95 | 108 | 8.0 | 14.0 | 0.00 | 0.00 | 0.00 | 43 | 1016.0 |
| 20260831175905 | 95 | 107 | 7.0 | 14.0 | 0.00 | 0.00 | 0.00 | 41 | 1016.0 |
| 20260831175805 | 96 | 108 | 7.0 | 14.0 | 0.00 | 0.00 | 0.00 | 41 | 1016.0 |
| 20260831175705 | 96 | 111 | 6.0 | 14.0 | 0.00 | 0.00 | 0.00 | 41 | 1016.0 |
| 20260831175605 | 96 | 112 | 6.0 | 14.0 | 0.00 | 0.00 | 0.00 | 41 | 1016.0 |
| 20260831175505 | 97 | 111 | 6.0 | 14.0 | 0.00 | 0.00 | 0.00 | 41 | 1016.1 |
| 20260831175405 | 96 | 117 | 5.0 | 13.0 | 0.00 | 0.00 | 0.00 | 42 | 1016.0 |
| 20260831175306 | 96 | 122 | 5.0 | 12.0 | 0.00 | 0.00 | 0.00 | 41 | 1016.0 |
| 20260831175204 | 96 | 131 | 6.0 | 12.0 | 0.00 | 0.00 | 0.00 | 42 | 1016.0 |
| 20260831175104 | 96 | 141 | 5.0 | 12.0 | 0.00 | 0.00 | 0.00 | 42 | 1016.1 |
| 20260831175005 | 96 | 150 | 5.0 | 12.0 | 0.00 | 0.00 | 0.00 | 42 | 1016.1 |
| 20260831174805 | 95 | 162 | 5.0 | 12.0 | 0.00 | 0.00 | 0.00 | 41 | 1016.1 |
| 20260831174705 | 95 | 158 | 6.0 | 12.0 | 0.00 | 0.00 | 0.00 | 41 | 1016.1 |
| 20260831174605 | 96 | 158 | 6.0 | 12.0 | 0.00 | 0.00 | 0.00 | 41 | 1016.1 |
| 20260831174405 | 96 | 157 | 6.0 | 12.0 | 0.00 | 0.00 | 0.00 | 43 | 1016.2 |
| 20260831174205 | 96 | 149 | 5.0 | 12.0 | 0.00 | 0.00 | 0.00 | 43 | 1016.2 |
| 20260831174105 | 96 | 147 | 5.0 | 11.0 | 0.00 | 0.00 | 0.00 | 43 | 1016.2 |
| 20260831174005 | 96 | 148 | 5.0 | 11.0 | 0.00 | 0.00 | 0.00 | 43 | 1016.2 |
| 20260831173905 | 96 | 144 | 5.0 | 11.0 | 0.00 | 0.00 | 0.00 | 43 | 1016.3 |
| 20260831173806 | 96 | 141 | 6.0 | 11.0 | 0.00 | 0.00 | 0.00 | 43 | 1016.3 |
| 20260831173705 | 96 | 143 | 6.0 | 13.0 | 0.00 | 0.00 | 0.00 | 43 | 1016.3 |
| 20260831173505 | 95 | 140 | 6.0 | 13.0 | 0.00 | 0.00 | 0.00 | 44 | 1016.3 |
| 20260831173305 | 95 | 133 | 7.0 | 13.0 | 0.00 | 0.00 | 0.00 | 43 | 1016.3 |
| 20260831173205 | 96 | 126 | 7.0 | 13.0 | 0.00 | 0.00 | 0.00 | 43 | 1016.4 |
| 20260831173104 | 96 | 125 | 7.0 | 13.0 | 0.00 | 0.00 | 0.00 | 42 | 1016.4 |
| 20260831173005 | 96 | 121 | 7.0 | 13.0 | 0.00 | 0.00 | 0.00 | 44 | 1016.4 |
| 20260831172904 | 96 | 117 | 7.0 | 13.0 | 0.00 | 0.00 | 0.00 | 44 | 1016.4 |
| 20260831172805 | 95 | 113 | 6.0 | 13.0 | 0.00 | 0.00 | 0.00 | 44 | 1016.4 |
| 20260831172705 | 95 | 109 | 6.0 | 13.0 | 0.00 | 0.00 | 0.00 | 46 | 1016.3 |
| 20260831172605 | 95 | 109 | 6.0 | 13.0 | 0.00 | 0.00 | 0.00 | 46 | 1016.4 |
| 20260831172504 | 95 | 109 | 6.0 | 13.0 | 0.00 | 0.00 | 0.00 | 46 | 1016.4 |
| 20260831172405 | 95 | 113 | 6.0 | 13.0 | 0.00 | 0.00 | 0.00 | 46 | 1016.4 |
| 20260831172306 | 95 | 123 | 6.0 | 13.0 | 0.00 | 0.00 | 0.00 | 47 | 1016.4 |
| 20260831172206 | 94 | 133 | 6.0 | 13.0 | 0.00 | 0.00 | 0.00 | 47 | 1016.4 |
| 20260831172104 | 94 | 137 | 5.0 | 13.0 | 0.00 | 0.00 | 0.00 | 47 | 1016.4 |
| 20260831172005 | 94 | 142 | 6.0 | 13.0 | 0.00 | 0.00 | 0.00 | 47 | 1016.4 |
| 20260831171904 | 94 | 148 | 5.0 | 13.0 | 0.00 | 0.00 | 0.00 | 46 | 1016.5 |
| 20260831171805 | 94 | 152 | 5.0 | 13.0 | 0.00 | 0.00 | 0.00 | 46 | 1016.5 |
| 20260831171705 | 94 | 156 | 5.0 | 13.0 | 0.00 | 0.00 | 0.00 | 47 | 1016.4 |
| 20260831171505 | 94 | 151 | 6.0 | 13.0 | 0.00 | 0.00 | 0.00 | 46 | 1016.5 |
| 20260831171405 | 94 | 150 | 6.0 | 13.0 | 0.00 | 0.00 | 0.00 | 46 | 1016.6 |
| 20260831171305 | 94 | 146 | 5.0 | 12.0 | 0.00 | 0.00 | 0.00 | 44 | 1016.6 |
| 20260831171005 | 94 | 150 | 6.0 | 12.0 | 0.00 | 0.00 | 0.00 | 44 | 1016.6 |
| 20260831170904 | 94 | 146 | 6.0 | 12.0 | 0.00 | 0.00 | 0.00 | 44 | 1016.6 |
| 20260831170705 | 94 | 138 | 6.0 | 13.0 | 0.00 | 0.00 | 0.00 | 45 | 1016.6 |
| 20260831170605 | 94 | 137 | 6.0 | 13.0 | 0.00 | 0.00 | 0.00 | 44 | 1016.6 |
| 20260831170505 | 94 | 137 | 6.0 | 13.0 | 0.00 | 0.00 | 0.00 | 45 | 1016.6 |
| 20260831170305 | 94 | 130 | 6.0 | 13.0 | 0.00 | 0.00 | 0.00 | 45 | 1016.6 |
| 20260831170205 | 94 | 126 | 6.0 | 13.0 | 0.00 | 0.00 | 0.00 | 45 | 1016.6 |
| 20260831170105 | 94 | 120 | 5.0 | 13.0 | 0.00 | 0.00 | 0.00 | 47 | 1016.6 |
| 20260831170005 | 94 | 120 | 5.0 | 13.0 | 0.00 | 0.00 | 0.00 | 48 | 1016.6 |
| 20260831165805 | 94 | 134 | 5.0 | 13.0 | 0.00 | 0.00 | 0.00 | 48 | 1016.6 |
| 20260831165705 | 94 | 147 | 5.0 | 10.0 | 0.00 | 0.00 | 0.00 | 48 | 1016.6 |
| 20260831165605 | 94 | 156 | 5.0 | 10.0 | 0.00 | 0.00 | 0.00 | 49 | 1016.6 |
| 20260831165505 | 94 | 160 | 5.0 | 10.0 | 0.00 | 0.00 | 0.00 | 48 | 1016.6 |
| 20260831165405 | 94 | 163 | 6.0 | 10.0 | 0.00 | 0.00 | 0.00 | 48 | 1016.6 |
| 20260831165305 | 94 | 164 | 6.0 | 11.0 | 0.00 | 0.00 | 0.00 | 47 | 1016.6 |
| 20260831165204 | 93 | 168 | 5.0 | 12.0 | 0.00 | 0.00 | 0.00 | 49 | 1016.6 |
| 20260831165006 | 93 | 166 | 5.0 | 12.0 | 0.00 | 0.00 | 0.00 | 50 | 1016.6 |
| 20260831164904 | 93 | 165 | 5.0 | 12.0 | 0.00 | 0.00 | 0.00 | 50 | 1016.5 |
| 20260831164805 | 93 | 165 | 5.0 | 12.0 | 0.00 | 0.00 | 0.00 | 49 | 1016.6 |
| 20260831164705 | 93 | 162 | 5.0 | 12.0 | 0.00 | 0.00 | 0.00 | 48 | 1016.6 |
| 20260831164605 | 93 | 162 | 5.0 | 12.0 | 0.00 | 0.00 | 0.00 | 48 | 1016.6 |
| 20260831164505 | 93 | 162 | 5.0 | 12.0 | 0.00 | 0.00 | 0.00 | 48 | 1016.6 |
| 20260831164405 | 93 | 165 | 5.0 | 12.0 | 0.00 | 0.00 | 0.00 | 48 | 1016.6 |
| 20260831164205 | 93 | 183 | 5.0 | 9.0 | 0.00 | 0.00 | 0.00 | 51 | 1016.7 |
| 20260831164104 | 93 | 185 | 5.0 | 9.0 | 0.00 | 0.00 | 0.00 | 51 | 1016.7 |
| 20260831164005 | 93 | 184 | 5.0 | 9.0 | 0.00 | 0.00 | 0.00 | 51 | 1016.7 |
| 20260831163906 | 93 | 183 | 5.0 | 9.0 | 0.00 | 0.00 | 0.00 | 51 | 1016.8 |
| 20260831163805 | 93 | 181 | 5.0 | 9.0 | 0.00 | 0.00 | 0.00 | 50 | 1016.7 |
| 20260831163704 | 93 | 185 | 4.0 | 9.0 | 0.00 | 0.00 | 0.00 | 51 | 1016.8 |
| 20260831163505 | 92 | 191 | 4.0 | 9.0 | 0.00 | 0.00 | 0.00 | 51 | 1016.7 |
| 20260831163405 | 92 | 191 | 4.0 | 9.0 | 0.00 | 0.00 | 0.00 | 51 | 1016.7 |
| 20260831163305 | 92 | 190 | 4.0 | 9.0 | 0.00 | 0.00 | 0.00 | 51 | 1016.7 |
| 20260831163005 | 91 | 170 | 5.0 | 15.0 | 0.00 | 0.00 | 0.00 | 52 | 1016.7 |
| 20260831162805 | 91 | 171 | 5.0 | 15.0 | 0.00 | 0.00 | 0.00 | 53 | 1016.7 |
| 20260831162705 | 91 | 173 | 6.0 | 15.0 | 0.00 | 0.00 | 0.00 | 53 | 1016.8 |
| 20260831162505 | 91 | 166 | 6.0 | 15.0 | 0.00 | 0.00 | 0.00 | 55 | 1016.8 |
| 20260831162405 | 91 | 166 | 6.0 | 15.0 | 0.00 | 0.00 | 0.00 | 55 | 1016.8 |
| 20260831162306 | 91 | 167 | 6.0 | 15.0 | 0.00 | 0.00 | 0.00 | 55 | 1016.8 |
| 20260831162205 | 91 | 173 | 6.0 | 15.0 | 0.00 | 0.00 | 0.00 | 54 | 1016.8 |
| 20260831162104 | 91 | 185 | 6.0 | 12.0 | 0.00 | 0.00 | 0.00 | 54 | 1016.8 |
| 20260831162005 | 91 | 186 | 5.0 | 12.0 | 0.00 | 0.00 | 0.00 | 54 | 1016.8 |
| 20260831161904 | 92 | 188 | 5.0 | 12.0 | 0.00 | 0.00 | 0.00 | 52 | 1016.8 |
| 20260831161805 | 92 | 191 | 5.0 | 12.0 | 0.00 | 0.00 | 0.00 | 52 | 1016.8 |
| 20260831161704 | 91 | 193 | 4.0 | 11.0 | 0.00 | 0.00 | 0.00 | 56 | 1016.8 |
| 20260831161605 | 91 | 198 | 4.0 | 10.0 | 0.00 | 0.00 | 0.00 | 56 | 1016.9 |
| 20260831161505 | 91 | 201 | 4.0 | 10.0 | 0.00 | 0.00 | 0.00 | 56 | 1016.9 |
| 20260831161405 | 91 | 207 | 4.0 | 10.0 | 0.00 | 0.00 | 0.00 | 56 | 1016.8 |
| 20260831161304 | 90 | 205 | 4.0 | 10.0 | 0.00 | 0.00 | 0.00 | 57 | 1016.9 |
| 20260831161206 | 90 | 205 | 4.0 | 10.0 | 0.00 | 0.00 | 0.00 | 57 | 1016.9 |
| 20260831161105 | 90 | 198 | 4.0 | 10.0 | 0.00 | 0.00 | 0.00 | 57 | 1016.8 |
| 20260831161005 | 90 | 195 | 5.0 | 10.0 | 0.00 | 0.00 | 0.00 | 57 | 1016.9 |
| 20260831160904 | 90 | 201 | 5.0 | 14.0 | 0.00 | 0.00 | 0.00 | 57 | 1016.8 |
| 20260831160705 | 90 | 195 | 5.0 | 14.0 | 0.00 | 0.00 | 0.00 | 56 | 1016.8 |
| 20260831160605 | 90 | 195 | 5.0 | 14.0 | 0.00 | 0.00 | 0.00 | 56 | 1016.8 |
| 20260831160504 | 90 | 194 | 6.0 | 14.0 | 0.00 | 0.00 | 0.00 | 56 | 1016.8 |
| 20260831160406 | 90 | 195 | 6.0 | 14.0 | 0.00 | 0.00 | 0.00 | 56 | 1016.8 |
| 20260831160205 | 90 | 190 | 6.0 | 14.0 | 0.00 | 0.00 | 0.00 | 57 | 1016.8 |
| 20260831160104 | 90 | 191 | 6.0 | 14.0 | 0.00 | 0.00 | 0.00 | 57 | 1016.8 |
| 20260831155905 | 90 | 187 | 5.0 | 14.0 | 0.00 | 0.00 | 0.00 | 57 | 1016.9 |
| 20260831155805 | 90 | 184 | 6.0 | 12.0 | 0.00 | 0.00 | 0.00 | 57 | 1016.9 |
| 20260831155705 | 90 | 179 | 6.0 | 12.0 | 0.00 | 0.00 | 0.00 | 57 | 1016.8 |
| 20260831155504 | 90 | 172 | 6.0 | 12.0 | 0.00 | 0.00 | 0.00 | 57 | 1016.8 |
| 20260831155405 | 90 | 168 | 6.0 | 12.0 | 0.00 | 0.00 | 0.00 | 57 | 1016.9 |
| 20260831155306 | 90 | 167 | 5.0 | 12.0 | 0.00 | 0.00 | 0.00 | 57 | 1016.8 |
| 20260831155105 | 89 | 172 | 5.0 | 10.0 | 0.00 | 0.00 | 0.00 | 59 | 1016.8 |
| 20260831155005 | 89 | 178 | 5.0 | 10.0 | 0.00 | 0.00 | 0.00 | 59 | 1016.8 |
| 20260831154605 | 89 | 193 | 4.0 | 10.0 | 0.00 | 0.00 | 0.00 | 60 | 1016.8 |
| 20260831154505 | 89 | 200 | 4.0 | 10.0 | 0.00 | 0.00 | 0.00 | 59 | 1016.7 |
| 20260831154405 | 90 | 209 | 5.0 | 10.0 | 0.00 | 0.00 | 0.00 | 60 | 1016.7 |
| 20260831154205 | 89 | 207 | 5.0 | 11.0 | 0.00 | 0.00 | 0.00 | 62 | 1016.7 |
| 20260831154105 | 89 | 208 | 5.0 | 11.0 | 0.00 | 0.00 | 0.00 | 62 | 1016.7 |
| 20260831154004 | 88 | 209 | 5.0 | 11.0 | 0.00 | 0.00 | 0.00 | 62 | 1016.7 |
| 20260831153905 | 88 | 208 | 4.0 | 11.0 | 0.00 | 0.00 | 0.00 | 62 | 1016.7 |
| 20260831153804 | 88 | 208 | 5.0 | 11.0 | 0.00 | 0.00 | 0.00 | 63 | 1016.7 |
| 20260831153705 | 88 | 207 | 5.0 | 11.0 | 0.00 | 0.00 | 0.00 | 62 | 1016.7 |
| 20260831153504 | 88 | 205 | 5.0 | 11.0 | 0.00 | 0.00 | 0.00 | 62 | 1016.7 |
| 20260831153406 | 89 | 206 | 5.0 | 11.0 | 0.00 | 0.00 | 0.00 | 62 | 1016.7 |
| 20260831153304 | 89 | 208 | 4.0 | 11.0 | 0.00 | 0.00 | 0.00 | 62 | 1016.6 |
| 20260831153205 | 89 | 212 | 5.0 | 9.0 | 0.00 | 0.00 | 0.00 | 62 | 1016.6 |
| 20260831153105 | 88 | 209 | 5.0 | 11.0 | 0.00 | 0.00 | 0.00 | 62 | 1016.6 |
| 20260831152906 | 88 | 197 | 5.0 | 11.0 | 0.00 | 0.00 | 0.00 | 62 | 1016.6 |
| 20260831152806 | 88 | 194 | 5.0 | 11.0 | 0.00 | 0.00 | 0.00 | 62 | 1016.6 |
| 20260831152705 | 88 | 191 | 5.0 | 11.0 | 0.00 | 0.00 | 0.00 | 62 | 1016.6 |
| 20260831152604 | 88 | 195 | 6.0 | 11.0 | 0.00 | 0.00 | 0.00 | 62 | 1016.7 |
| 20260831152505 | 88 | 193 | 6.0 | 11.0 | 0.00 | 0.00 | 0.00 | 62 | 1016.6 |
| 20260831152404 | 88 | 186 | 6.0 | 11.0 | 0.00 | 0.00 | 0.00 | 62 | 1016.6 |
| 20260831152204 | 88 | 179 | 5.0 | 11.0 | 0.00 | 0.00 | 0.00 | 62 | 1016.7 |
| 20260831152105 | 88 | 183 | 5.0 | 10.0 | 0.00 | 0.00 | 0.00 | 62 | 1016.6 |
| 20260831152005 | 88 | 189 | 5.0 | 10.0 | 0.00 | 0.00 | 0.00 | 62 | 1016.6 |
| 20260831151904 | 88 | 193 | 4.0 | 10.0 | 0.00 | 0.00 | 0.00 | 63 | 1016.6 |
| 20260831151704 | 88 | 196 | 4.0 | 9.0 | 0.00 | 0.00 | 0.00 | 63 | 1016.6 |
| 20260831151605 | 87 | 192 | 4.0 | 9.0 | 0.00 | 0.00 | 0.00 | 63 | 1016.6 |
| 20260831151504 | 87 | 198 | 4.0 | 10.0 | 0.00 | 0.00 | 0.00 | 65 | 1016.6 |
| 20260831151405 | 87 | 204 | 4.0 | 10.0 | 0.00 | 0.00 | 0.00 | 67 | 1016.6 |
| 20260831151305 | 87 | 210 | 4.0 | 10.0 | 0.00 | 0.00 | 0.00 | 67 | 1016.5 |
| 20260831151205 | 87 | 204 | 4.0 | 10.0 | 0.00 | 0.00 | 0.00 | 67 | 1016.5 |
| 20260831151106 | 87 | 192 | 4.0 | 10.0 | 0.00 | 0.00 | 0.00 | 67 | 1016.5 |
| 20260831151005 | 86 | 186 | 4.0 | 10.0 | 0.00 | 0.00 | 0.00 | 68 | 1016.5 |
| 20260831150904 | 86 | 187 | 4.0 | 10.0 | 0.00 | 0.00 | 0.00 | 68 | 1016.6 |
| 20260831150805 | 86 | 191 | 4.0 | 10.0 | 0.00 | 0.00 | 0.00 | 67 | 1016.5 |
| 20260831150605 | 86 | 199 | 4.0 | 10.0 | 0.00 | 0.00 | 0.00 | 67 | 1016.5 |
| 20260831150505 | 86 | 194 | 4.0 | 10.0 | 0.00 | 0.00 | 0.00 | 67 | 1016.5 |
| 20260831150405 | 86 | 192 | 4.0 | 10.0 | 0.00 | 0.00 | 0.00 | 68 | 1016.5 |
| 20260831150205 | 86 | 192 | 4.0 | 10.0 | 0.00 | 0.00 | 0.00 | 68 | 1016.5 |
| 20260831150105 | 86 | 195 | 5.0 | 10.0 | 0.00 | 0.00 | 0.00 | 68 | 1016.5 |
| 20260831150005 | 86 | 194 | 5.0 | 10.0 | 0.00 | 0.00 | 0.00 | 69 | 1016.5 |
| 20260831145905 | 86 | 192 | 6.0 | 11.0 | 0.00 | 0.00 | 0.00 | 70 | 1016.5 |
| 20260831145705 | 85 | 186 | 6.0 | 11.0 | 0.00 | 0.00 | 0.00 | 70 | 1016.5 |
| 20260831145505 | 85 | 177 | 6.0 | 11.0 | 0.00 | 0.00 | 0.00 | 70 | 1016.4 |
| 20260831145404 | 85 | 174 | 6.0 | 11.0 | 0.00 | 0.00 | 0.00 | 70 | 1016.4 |
| 20260831145306 | 85 | 173 | 6.0 | 11.0 | 0.00 | 0.00 | 0.00 | 70 | 1016.5 |
| 20260831145204 | 85 | 172 | 5.0 | 11.0 | 0.00 | 0.00 | 0.00 | 70 | 1016.5 |
| 20260831145105 | 86 | 174 | 5.0 | 11.0 | 0.00 | 0.00 | 0.00 | 70 | 1016.5 |
| 20260831145004 | 86 | 176 | 5.0 | 11.0 | 0.00 | 0.00 | 0.00 | 70 | 1016.4 |
| 20260831144905 | 86 | 177 | 5.0 | 10.0 | 0.00 | 0.00 | 0.00 | 70 | 1016.4 |
| 20260831144804 | 86 | 182 | 5.0 | 9.0 | 0.00 | 0.00 | 0.00 | 70 | 1016.4 |
| 20260831144705 | 86 | 184 | 5.0 | 9.0 | 0.00 | 0.00 | 0.00 | 70 | 1016.4 |
| 20260831144604 | 85 | 189 | 5.0 | 11.0 | 0.00 | 0.00 | 0.00 | 70 | 1016.4 |
| 20260831144505 | 85 | 188 | 5.0 | 11.0 | 0.00 | 0.00 | 0.00 | 70 | 1016.4 |
| 20260831144404 | 85 | 188 | 5.0 | 11.0 | 0.00 | 0.00 | 0.00 | 70 | 1016.4 |
| 20260831144305 | 85 | 187 | 5.0 | 11.0 | 0.00 | 0.00 | 0.00 | 71 | 1016.3 |
| 20260831144105 | 84 | 179 | 5.0 | 11.0 | 0.00 | 0.00 | 0.00 | 71 | 1016.3 |
| 20260831144004 | 84 | 176 | 5.0 | 11.0 | 0.00 | 0.00 | 0.00 | 72 | 1016.4 |
| 20260831143804 | 84 | 166 | 5.0 | 11.0 | 0.00 | 0.00 | 0.00 | 72 | 1016.3 |
| 20260831143704 | 84 | 161 | 5.0 | 11.0 | 0.00 | 0.00 | 0.00 | 73 | 1016.3 |
| 20260831143605 | 84 | 161 | 5.0 | 10.0 | 0.00 | 0.00 | 0.00 | 73 | 1016.3 |
| 20260831143505 | 84 | 162 | 5.0 | 10.0 | 0.00 | 0.00 | 0.00 | 73 | 1016.3 |
| 20260831143405 | 84 | 164 | 5.0 | 10.0 | 0.00 | 0.00 | 0.00 | 73 | 1016.4 |
| 20260831143305 | 84 | 166 | 5.0 | 10.0 | 0.00 | 0.00 | 0.00 | 73 | 1016.3 |
| 20260831143204 | 84 | 170 | 5.0 | 10.0 | 0.00 | 0.00 | 0.00 | 73 | 1016.3 |
| 20260831143006 | 84 | 173 | 5.0 | 10.0 | 0.00 | 0.00 | 0.00 | 76 | 1016.3 |
| 20260831142904 | 84 | 176 | 5.0 | 10.0 | 0.00 | 0.00 | 0.00 | 76 | 1016.3 |
| 20260831142805 | 84 | 183 | 5.0 | 11.0 | 0.00 | 0.00 | 0.00 | 76 | 1016.3 |
| 20260831142504 | 83 | 183 | 6.0 | 11.0 | 0.00 | 0.00 | 0.00 | 76 | 1016.3 |
| 20260831142405 | 83 | 181 | 6.0 | 11.0 | 0.00 | 0.00 | 0.00 | 76 | 1016.2 |
| 20260831142306 | 83 | 182 | 6.0 | 12.0 | 0.00 | 0.00 | 0.00 | 76 | 1016.2 |
| 20260831142205 | 83 | 183 | 6.0 | 12.0 | 0.00 | 0.00 | 0.00 | 76 | 1016.2 |
| 20260831142105 | 83 | 183 | 6.0 | 12.0 | 0.00 | 0.00 | 0.00 | 76 | 1016.3 |
| 20260831142005 | 83 | 182 | 6.0 | 12.0 | 0.00 | 0.00 | 0.00 | 76 | 1016.2 |
| 20260831141905 | 82 | 182 | 6.0 | 12.0 | 0.00 | 0.00 | 0.00 | 76 | 1016.2 |
| 20260831141805 | 82 | 178 | 6.0 | 12.0 | 0.00 | 0.00 | 0.00 | 76 | 1016.2 |
| 20260831141704 | 82 | 178 | 6.0 | 12.0 | 0.00 | 0.00 | 0.00 | 76 | 1016.3 |
| 20260831141605 | 82 | 177 | 6.0 | 12.0 | 0.00 | 0.00 | 0.00 | 76 | 1016.3 |
| 20260831141405 | 82 | 178 | 6.0 | 12.0 | 0.00 | 0.00 | 0.00 | 76 | 1016.2 |
| 20260831141304 | 82 | 177 | 6.0 | 10.0 | 0.00 | 0.00 | 0.00 | 77 | 1016.3 |
| 20260831141105 | 82 | 176 | 6.0 | 10.0 | 0.00 | 0.00 | 0.00 | 77 | 1016.3 |
| 20260831140905 | 82 | 177 | 5.0 | 10.0 | 0.00 | 0.00 | 0.00 | 77 | 1016.3 |
| 20260831140605 | 82 | 181 | 5.0 | 10.0 | 0.00 | 0.00 | 0.00 | 77 | 1016.2 |
| 20260831140506 | 82 | 181 | 5.0 | 9.0 | 0.00 | 0.00 | 0.00 | 78 | 1016.2 |
| 20260831140404 | 82 | 178 | 5.0 | 11.0 | 0.00 | 0.00 | 0.00 | 78 | 1016.3 |
| 20260831140304 | 82 | 179 | 5.0 | 11.0 | 0.00 | 0.00 | 0.00 | 78 | 1016.2 |
| 20260831140205 | 82 | 177 | 5.0 | 11.0 | 0.00 | 0.00 | 0.00 | 78 | 1016.2 |
| 20260831140105 | 82 | 177 | 5.0 | 11.0 | 0.00 | 0.00 | 0.00 | 78 | 1016.2 |
| 20260831140005 | 82 | 177 | 5.0 | 11.0 | 0.00 | 0.00 | 0.00 | 78 | 1016.1 |
| 20260831135904 | 81 | 177 | 5.0 | 11.0 | 0.00 | 0.00 | 0.00 | 79 | 1016.1 |
| 20260831135805 | 81 | 178 | 6.0 | 11.0 | 0.00 | 0.00 | 0.00 | 79 | 1016.1 |
| 20260831135705 | 81 | 178 | 6.0 | 11.0 | 0.00 | 0.00 | 0.00 | 79 | 1016.2 |
| 20260831135604 | 81 | 181 | 6.0 | 11.0 | 0.00 | 0.00 | 0.00 | 79 | 1016.1 |
| 20260831135505 | 81 | 182 | 6.0 | 11.0 | 0.00 | 0.00 | 0.00 | 80 | 1016.1 |
| 20260831135404 | 81 | 183 | 6.0 | 10.0 | 0.00 | 0.00 | 0.00 | 80 | 1016.1 |
| 20260831135306 | 81 | 178 | 6.0 | 10.0 | 0.00 | 0.00 | 0.00 | 80 | 1016.2 |
| 20260831135104 | 81 | 178 | 5.0 | 10.0 | 0.00 | 0.00 | 0.00 | 80 | 1016.1 |
| 20260831135005 | 81 | 177 | 5.0 | 10.0 | 0.00 | 0.00 | 0.00 | 80 | 1016.1 |
| 20260831134904 | 81 | 179 | 5.0 | 10.0 | 0.00 | 0.00 | 0.00 | 80 | 1016.1 |
| 20260831134805 | 80 | 182 | 5.0 | 10.0 | 0.00 | 0.00 | 0.00 | 80 | 1016.1 |
| 20260831134605 | 80 | 177 | 4.0 | 10.0 | 0.00 | 0.00 | 0.00 | 81 | 1016.0 |
| 20260831134305 | 80 | 184 | 4.0 | 9.0 | 0.00 | 0.00 | 0.00 | 81 | 1016.1 |
| 20260831134204 | 80 | 186 | 4.0 | 9.0 | 0.00 | 0.00 | 0.00 | 82 | 1016.0 |
| 20260831134004 | 80 | 186 | 4.0 | 9.0 | 0.00 | 0.00 | 0.00 | 82 | 1016.0 |
| 20260831133905 | 80 | 185 | 4.0 | 9.0 | 0.00 | 0.00 | 0.00 | 82 | 1016.1 |
| 20260831133804 | 80 | 182 | 4.0 | 9.0 | 0.00 | 0.00 | 0.00 | 81 | 1016.0 |
| 20260831133504 | 80 | 182 | 4.0 | 9.0 | 0.00 | 0.00 | 0.00 | 82 | 1016.1 |
| 20260831133405 | 80 | 181 | 4.0 | 9.0 | 0.00 | 0.00 | 0.00 | 82 | 1016.1 |
| 20260831133304 | 80 | 182 | 3.0 | 9.0 | 0.00 | 0.00 | 0.00 | 82 | 1016.0 |
| 20260831133205 | 79 | 179 | 3.0 | 9.0 | 0.00 | 0.00 | 0.00 | 82 | 1016.0 |
| 20260831133004 | 79 | 184 | 4.0 | 9.0 | 0.00 | 0.00 | 0.00 | 82 | 1016.0 |
| 20260831132905 | 79 | 182 | 3.0 | 9.0 | 0.00 | 0.00 | 0.00 | 82 | 1016.0 |
| 20260831132804 | 79 | 179 | 3.0 | 8.0 | 0.00 | 0.00 | 0.00 | 82 | 1016.0 |
| 20260831132705 | 79 | 181 | 3.0 | 8.0 | 0.00 | 0.00 | 0.00 | 83 | 1016.0 |
| 20260831132604 | 79 | 181 | 2.0 | 7.0 | 0.00 | 0.00 | 0.00 | 83 | 1015.9 |
| 20260831132505 | 79 | 179 | 2.0 | 6.0 | 0.00 | 0.00 | 0.00 | 83 | 1015.9 |
| 20260831132405 | 79 | 184 | 2.0 | 6.0 | 0.00 | 0.00 | 0.00 | 83 | 1016.0 |
| 20260831132306 | 79 | 184 | 2.0 | 6.0 | 0.00 | 0.00 | 0.00 | 83 | 1016.0 |
| 20260831132205 | 79 | 183 | 2.0 | 6.0 | 0.00 | 0.00 | 0.00 | 84 | 1015.9 |
| 20260831131905 | 78 | 177 | 2.0 | 5.0 | 0.00 | 0.00 | 0.00 | 84 | 1016.0 |
| 20260831131804 | 78 | 176 | 2.0 | 5.0 | 0.00 | 0.00 | 0.00 | 84 | 1015.9 |
| 20260831131705 | 78 | 174 | 2.0 | 5.0 | 0.00 | 0.00 | 0.00 | 84 | 1015.9 |
| 20260831131604 | 78 | 171 | 2.0 | 5.0 | 0.00 | 0.00 | 0.00 | 84 | 1016.0 |
| 20260831131505 | 78 | 168 | 2.0 | 6.0 | 0.00 | 0.00 | 0.00 | 84 | 1016.0 |
| 20260831131404 | 78 | 162 | 2.0 | 6.0 | 0.00 | 0.00 | 0.00 | 85 | 1016.0 |
| 20260831131304 | 78 | 160 | 2.0 | 6.0 | 0.00 | 0.00 | 0.00 | 85 | 1015.9 |
| 20260831131205 | 78 | 161 | 2.0 | 6.0 | 0.00 | 0.00 | 0.00 | 85 | 1015.9 |
| 20260831131105 | 78 | 158 | 3.0 | 6.0 | 0.00 | 0.00 | 0.00 | 85 | 1015.9 |
| 20260831131005 | 78 | 160 | 3.0 | 6.0 | 0.00 | 0.00 | 0.00 | 85 | 1015.9 |
| 20260831130904 | 78 | 160 | 3.0 | 6.0 | 0.00 | 0.00 | 0.00 | 85 | 1015.8 |
| 20260831130805 | 77 | 162 | 3.0 | 6.0 | 0.00 | 0.00 | 0.00 | 85 | 1015.9 |
| 20260831130704 | 77 | 163 | 3.0 | 6.0 | 0.00 | 0.00 | 0.00 | 85 | 1015.8 |
| 20260831130604 | 77 | 163 | 2.0 | 6.0 | 0.00 | 0.00 | 0.00 | 85 | 1015.8 |
| 20260831130404 | 77 | 166 | 2.0 | 4.0 | 0.00 | 0.00 | 0.00 | 86 | 1015.7 |
| 20260831130305 | 77 | 166 | 2.0 | 4.0 | 0.00 | 0.00 | 0.00 | 86 | 1015.7 |
| 20260831130204 | 77 | 165 | 2.0 | 4.0 | 0.00 | 0.00 | 0.00 | 86 | 1015.7 |
| 20260831130105 | 77 | 164 | 1.0 | 4.0 | 0.00 | 0.00 | 0.00 | 86 | 1015.7 |
| 20260831130004 | 77 | 163 | 1.0 | 4.0 | 0.00 | 0.00 | 0.00 | 86 | 1015.7 |
| 20260831125905 | 77 | 166 | 1.0 | 4.0 | 0.00 | 0.00 | 0.00 | 86 | 1015.7 |
| 20260831125804 | 77 | 163 | 0.0 | 3.0 | 0.00 | 0.00 | 0.00 | 86 | 1015.6 |
| 20260831125704 | 77 | 164 | 0.0 | 3.0 | 0.00 | 0.00 | 0.00 | 86 | 1015.6 |
| 20260831125605 | 77 | 168 | 0.0 | 3.0 | 0.00 | 0.00 | 0.00 | 86 | 1015.6 |
| 20260831125506 | 76 | 168 | 0.0 | 3.0 | 0.00 | 0.00 | 0.00 | 86 | 1015.6 |
| 20260831125306 | 76 | 192 | 0.0 | 2.0 | 0.00 | 0.00 | 0.00 | 87 | 1015.6 |
| 20260831125205 | 76 | 202 | 0.0 | 3.0 | 0.00 | 0.00 | 0.00 | 87 | 1015.6 |
| 20260831125106 | 76 | 196 | 1.0 | 3.0 | 0.00 | 0.00 | 0.00 | 87 | 1015.6 |
| 20260831124904 | 76 | 187 | 1.0 | 3.0 | 0.00 | 0.00 | 0.00 | 87 | 1015.6 |
| 20260831124805 | 76 | 185 | 1.0 | 3.0 | 0.00 | 0.00 | 0.00 | 87 | 1015.5 |
| 20260831124705 | 76 | 187 | 1.0 | 3.0 | 0.00 | 0.00 | 0.00 | 87 | 1015.6 |
| 20260831124604 | 76 | 186 | 2.0 | 3.0 | 0.00 | 0.00 | 0.00 | 87 | 1015.6 |
| 20260831124404 | 76 | 186 | 2.0 | 4.0 | 0.00 | 0.00 | 0.00 | 87 | 1015.6 |
| 20260831124205 | 76 | 183 | 2.0 | 4.0 | 0.00 | 0.00 | 0.00 | 87 | 1015.5 |
| 20260831124104 | 76 | 181 | 2.0 | 4.0 | 0.00 | 0.00 | 0.00 | 87 | 1015.5 |
| 20260831124005 | 76 | 179 | 2.0 | 4.0 | 0.00 | 0.00 | 0.00 | 87 | 1015.5 |
| 20260831123804 | 75 | 177 | 2.0 | 4.0 | 0.00 | 0.00 | 0.00 | 87 | 1015.5 |
| 20260831123705 | 75 | 175 | 2.0 | 4.0 | 0.00 | 0.00 | 0.00 | 87 | 1015.5 |
| 20260831123504 | 75 | 171 | 2.0 | 4.0 | 0.00 | 0.00 | 0.00 | 88 | 1015.5 |
| 20260831123404 | 75 | 171 | 2.0 | 4.0 | 0.00 | 0.00 | 0.00 | 87 | 1015.5 |
| 20260831123305 | 75 | 169 | 2.0 | 4.0 | 0.00 | 0.00 | 0.00 | 87 | 1015.4 |
| 20260831123204 | 75 | 170 | 2.0 | 4.0 | 0.00 | 0.00 | 0.00 | 87 | 1015.4 |
| 20260831123105 | 75 | 173 | 2.0 | 4.0 | 0.00 | 0.00 | 0.00 | 87 | 1015.5 |
| 20260831123004 | 75 | 175 | 2.0 | 4.0 | 0.00 | 0.00 | 0.00 | 87 | 1015.5 |
| 20260831122804 | 75 | 181 | 2.0 | 4.0 | 0.00 | 0.00 | 0.00 | 87 | 1015.5 |
| 20260831122705 | 75 | 183 | 2.0 | 4.0 | 0.00 | 0.00 | 0.00 | 87 | 1015.4 |
| 20260831122604 | 75 | 185 | 2.0 | 4.0 | 0.00 | 0.00 | 0.00 | 87 | 1015.4 |
| 20260831122505 | 75 | 186 | 2.0 | 4.0 | 0.00 | 0.00 | 0.00 | 87 | 1015.4 |
| 20260831122204 | 75 | 186 | 2.0 | 4.0 | 0.00 | 0.00 | 0.00 | 87 | 1015.4 |
| 20260831122104 | 75 | 183 | 2.0 | 4.0 | 0.00 | 0.00 | 0.00 | 87 | 1015.4 |
| 20260831121905 | 75 | 179 | 2.0 | 4.0 | 0.00 | 0.00 | 0.00 | 87 | 1015.4 |
| 20260831121804 | 75 | 178 | 2.0 | 4.0 | 0.00 | 0.00 | 0.00 | 87 | 1015.4 |
| 20260831121705 | 75 | 177 | 2.0 | 4.0 | 0.00 | 0.00 | 0.00 | 87 | 1015.4 |
| 20260831121604 | 75 | 177 | 2.0 | 4.0 | 0.00 | 0.00 | 0.00 | 87 | 1015.4 |
| 20260831121505 | 75 | 178 | 2.0 | 4.0 | 0.00 | 0.00 | 0.00 | 87 | 1015.4 |
| 20260831121404 | 75 | 178 | 2.0 | 4.0 | 0.00 | 0.00 | 0.00 | 87 | 1015.4 |
| 20260831121306 | 75 | 179 | 2.0 | 4.0 | 0.00 | 0.00 | 0.00 | 87 | 1015.4 |
| 20260831121205 | 75 | 181 | 2.0 | 4.0 | 0.00 | 0.00 | 0.00 | 87 | 1015.4 |
| 20260831120804 | 75 | 183 | 2.0 | 4.0 | 0.00 | 0.00 | 0.00 | 87 | 1015.3 |
| 20260831120705 | 75 | 185 | 2.0 | 4.0 | 0.00 | 0.00 | 0.00 | 87 | 1015.4 |
| 20260831120604 | 75 | 185 | 2.0 | 4.0 | 0.00 | 0.00 | 0.00 | 87 | 1015.3 |
| 20260831120505 | 75 | 185 | 2.0 | 4.0 | 0.00 | 0.00 | 0.00 | 87 | 1015.3 |
| 20260831120404 | 75 | 186 | 2.0 | 4.0 | 0.00 | 0.00 | 0.00 | 87 | 1015.3 |
| 20260831120304 | 75 | 188 | 2.0 | 4.0 | 0.00 | 0.00 | 0.00 | 87 | 1015.3 |
| 20260831120204 | 75 | 190 | 2.0 | 6.0 | 0.00 | 0.00 | 0.00 | 87 | 1015.4 |
| 20260831120104 | 75 | 191 | 2.0 | 6.0 | 0.00 | 0.00 | 0.00 | 87 | 1015.4 |
| 20260831120004 | 75 | 192 | 2.0 | 6.0 | 0.00 | 0.00 | 0.00 | 87 | 1015.3 |
| 20260831115904 | 75 | 192 | 2.0 | 6.0 | 0.00 | 0.00 | 0.00 | 87 | 1015.4 |
| 20260831115804 | 75 | 193 | 2.0 | 6.0 | 0.00 | 0.00 | 0.00 | 87 | 1015.3 |
| 20260831115704 | 75 | 192 | 2.0 | 6.0 | 0.00 | 0.00 | 0.00 | 87 | 1015.3 |
| 20260831115605 | 75 | 193 | 2.0 | 6.0 | 0.00 | 0.00 | 0.00 | 87 | 1015.3 |
| 20260831115506 | 75 | 194 | 2.0 | 6.0 | 0.00 | 0.00 | 0.00 | 87 | 1015.3 |
| 20260831115404 | 75 | 194 | 2.0 | 6.0 | 0.00 | 0.00 | 0.00 | 87 | 1015.3 |
| 20260831115205 | 76 | 193 | 2.0 | 5.0 | 0.00 | 0.00 | 0.00 | 86 | 1015.3 |
| 20260831115104 | 76 | 196 | 2.0 | 5.0 | 0.00 | 0.00 | 0.00 | 86 | 1015.3 |
| 20260831115004 | 76 | 195 | 2.0 | 5.0 | 0.00 | 0.00 | 0.00 | 86 | 1015.3 |
| 20260831114905 | 76 | 194 | 2.0 | 5.0 | 0.00 | 0.00 | 0.00 | 86 | 1015.3 |
| 20260831114804 | 76 | 194 | 2.0 | 5.0 | 0.00 | 0.00 | 0.00 | 86 | 1015.2 |
| 20260831114705 | 76 | 194 | 2.0 | 5.0 | 0.00 | 0.00 | 0.00 | 86 | 1015.2 |
| 20260831114604 | 76 | 193 | 2.0 | 5.0 | 0.00 | 0.00 | 0.00 | 86 | 1015.2 |
| 20260831114505 | 76 | 192 | 3.0 | 5.0 | 0.00 | 0.00 | 0.00 | 86 | 1015.2 |
| 20260831114404 | 76 | 192 | 3.0 | 5.0 | 0.00 | 0.00 | 0.00 | 86 | 1015.2 |
| 20260831114205 | 76 | 192 | 3.0 | 5.0 | 0.00 | 0.00 | 0.00 | 86 | 1015.1 |
| 20260831114104 | 76 | 191 | 3.0 | 5.0 | 0.00 | 0.00 | 0.00 | 86 | 1015.1 |
| 20260831114005 | 76 | 193 | 3.0 | 6.0 | 0.00 | 0.00 | 0.00 | 86 | 1015.1 |
| 20260831113904 | 76 | 193 | 3.0 | 6.0 | 0.00 | 0.00 | 0.00 | 86 | 1015.1 |
| 20260831113804 | 76 | 193 | 3.0 | 6.0 | 0.00 | 0.00 | 0.00 | 86 | 1015.1 |
| 20260831113504 | 76 | 192 | 3.0 | 6.0 | 0.00 | 0.00 | 0.00 | 86 | 1015.1 |
| 20260831113304 | 76 | 193 | 3.0 | 6.0 | 0.00 | 0.00 | 0.00 | 86 | 1015.0 |
| 20260831113005 | 76 | 196 | 3.0 | 7.0 | 0.00 | 0.00 | 0.00 | 86 | 1015.0 |
| 20260831112904 | 76 | 196 | 3.0 | 7.0 | 0.00 | 0.00 | 0.00 | 86 | 1015.0 |
| 20260831112805 | 76 | 199 | 3.0 | 7.0 | 0.00 | 0.00 | 0.00 | 86 | 1015.0 |
| 20260831112604 | 76 | 203 | 3.0 | 7.0 | 0.00 | 0.00 | 0.00 | 85 | 1014.9 |
| 20260831112504 | 76 | 204 | 3.0 | 7.0 | 0.00 | 0.00 | 0.00 | 85 | 1014.9 |
| 20260831112404 | 76 | 204 | 3.0 | 7.0 | 0.00 | 0.00 | 0.00 | 85 | 1014.9 |
| 20260831112204 | 76 | 204 | 3.0 | 7.0 | 0.00 | 0.00 | 0.00 | 85 | 1014.9 |
| 20260831112104 | 76 | 204 | 3.0 | 6.0 | 0.00 | 0.00 | 0.00 | 85 | 1014.9 |
| 20260831111904 | 76 | 203 | 3.0 | 6.0 | 0.00 | 0.00 | 0.00 | 85 | 1014.9 |
| 20260831111805 | 76 | 201 | 3.0 | 6.0 | 0.00 | 0.00 | 0.00 | 85 | 1014.9 |
| 20260831111704 | 76 | 199 | 3.0 | 6.0 | 0.00 | 0.00 | 0.00 | 85 | 1014.9 |
| 20260831111605 | 76 | 199 | 3.0 | 7.0 | 0.00 | 0.00 | 0.00 | 85 | 1014.9 |
| 20260831111504 | 76 | 199 | 3.0 | 7.0 | 0.00 | 0.00 | 0.00 | 85 | 1014.9 |
| 20260831111405 | 76 | 200 | 3.0 | 7.0 | 0.00 | 0.00 | 0.00 | 85 | 1014.9 |
| 20260831111304 | 76 | 199 | 3.0 | 7.0 | 0.00 | 0.00 | 0.00 | 85 | 1014.8 |
| 20260831111104 | 76 | 198 | 4.0 | 7.0 | 0.00 | 0.00 | 0.00 | 85 | 1014.9 |
| 20260831110905 | 76 | 197 | 3.0 | 7.0 | 0.00 | 0.00 | 0.00 | 85 | 1014.9 |
| 20260831110804 | 76 | 197 | 4.0 | 8.0 | 0.00 | 0.00 | 0.00 | 85 | 1014.9 |
| 20260831110604 | 76 | 197 | 4.0 | 8.0 | 0.00 | 0.00 | 0.00 | 85 | 1014.8 |
| 20260831110504 | 76 | 197 | 4.0 | 8.0 | 0.00 | 0.00 | 0.00 | 85 | 1014.8 |
| 20260831110304 | 76 | 199 | 4.0 | 8.0 | 0.00 | 0.00 | 0.00 | 84 | 1014.8 |
| 20260831110104 | 76 | 200 | 4.0 | 8.0 | 0.00 | 0.00 | 0.00 | 84 | 1014.7 |
| 20260831110005 | 76 | 202 | 4.0 | 8.0 | 0.00 | 0.00 | 0.00 | 84 | 1014.8 |
| 20260831105904 | 76 | 202 | 5.0 | 8.0 | 0.00 | 0.00 | 0.00 | 84 | 1014.8 |
| 20260831105804 | 76 | 203 | 4.0 | 8.0 | 0.00 | 0.00 | 0.00 | 84 | 1014.8 |
| 20260831105705 | 76 | 202 | 4.0 | 8.0 | 0.00 | 0.00 | 0.00 | 84 | 1014.8 |
| 20260831105604 | 76 | 202 | 4.0 | 8.0 | 0.00 | 0.00 | 0.00 | 84 | 1014.8 |
| 20260831105505 | 76 | 202 | 5.0 | 8.0 | 0.00 | 0.00 | 0.00 | 84 | 1014.9 |
| 20260831105404 | 76 | 201 | 5.0 | 8.0 | 0.00 | 0.00 | 0.00 | 84 | 1014.8 |
| 20260831105104 | 76 | 202 | 4.0 | 8.0 | 0.00 | 0.00 | 0.00 | 84 | 1014.9 |
| 20260831105005 | 77 | 202 | 4.0 | 8.0 | 0.00 | 0.00 | 0.00 | 84 | 1014.8 |
| 20260831104904 | 77 | 201 | 4.0 | 8.0 | 0.00 | 0.00 | 0.00 | 84 | 1014.9 |
| 20260831104805 | 77 | 201 | 4.0 | 9.0 | 0.00 | 0.00 | 0.00 | 84 | 1014.9 |
| 20260831104704 | 77 | 201 | 5.0 | 9.0 | 0.00 | 0.00 | 0.00 | 84 | 1014.9 |
| 20260831104604 | 77 | 201 | 5.0 | 9.0 | 0.00 | 0.00 | 0.00 | 83 | 1014.9 |
| 20260831104505 | 77 | 199 | 5.0 | 9.0 | 0.00 | 0.00 | 0.00 | 83 | 1014.9 |
| 20260831104304 | 77 | 196 | 4.0 | 9.0 | 0.00 | 0.00 | 0.00 | 83 | 1014.8 |
| 20260831104104 | 77 | 194 | 4.0 | 9.0 | 0.00 | 0.00 | 0.00 | 83 | 1014.8 |
| 20260831104005 | 77 | 193 | 5.0 | 9.0 | 0.00 | 0.00 | 0.00 | 83 | 1014.8 |
| 20260831103904 | 77 | 191 | 4.0 | 9.0 | 0.00 | 0.00 | 0.00 | 83 | 1014.8 |
| 20260831103805 | 77 | 190 | 5.0 | 8.0 | 0.00 | 0.00 | 0.00 | 83 | 1014.8 |
| 20260831103705 | 77 | 189 | 4.0 | 8.0 | 0.00 | 0.00 | 0.00 | 83 | 1014.8 |
| 20260831103504 | 77 | 188 | 4.0 | 8.0 | 0.00 | 0.00 | 0.00 | 83 | 1014.8 |
| 20260831103304 | 77 | 188 | 4.0 | 8.0 | 0.00 | 0.00 | 0.00 | 83 | 1014.8 |
| 20260831103205 | 77 | 189 | 4.0 | 8.0 | 0.00 | 0.00 | 0.00 | 83 | 1014.8 |
| 20260831103104 | 77 | 190 | 4.0 | 8.0 | 0.00 | 0.00 | 0.00 | 83 | 1014.8 |
| 20260831103005 | 77 | 190 | 4.0 | 8.0 | 0.00 | 0.00 | 0.00 | 82 | 1014.8 |
| 20260831102904 | 77 | 191 | 4.0 | 8.0 | 0.00 | 0.00 | 0.00 | 82 | 1014.8 |
| 20260831102806 | 77 | 192 | 4.0 | 8.0 | 0.00 | 0.00 | 0.00 | 82 | 1014.8 |
| 20260831102704 | 77 | 193 | 4.0 | 8.0 | 0.00 | 0.00 | 0.00 | 82 | 1014.7 |
| 20260831102504 | 77 | 194 | 4.0 | 7.0 | 0.00 | 0.00 | 0.00 | 82 | 1014.8 |
| 20260831102405 | 77 | 195 | 4.0 | 7.0 | 0.00 | 0.00 | 0.00 | 82 | 1014.8 |
| 20260831102306 | 77 | 194 | 4.0 | 7.0 | 0.00 | 0.00 | 0.00 | 82 | 1014.8 |
| 20260831102205 | 77 | 193 | 4.0 | 7.0 | 0.00 | 0.00 | 0.00 | 81 | 1014.8 |
| 20260831102104 | 77 | 193 | 3.0 | 7.0 | 0.00 | 0.00 | 0.00 | 81 | 1014.8 |
| 20260831102005 | 77 | 193 | 4.0 | 7.0 | 0.00 | 0.00 | 0.00 | 81 | 1014.8 |
| 20260831101904 | 77 | 192 | 4.0 | 8.0 | 0.00 | 0.00 | 0.00 | 81 | 1014.8 |
| 20260831101805 | 77 | 192 | 4.0 | 8.0 | 0.00 | 0.00 | 0.00 | 81 | 1014.8 |
| 20260831101704 | 77 | 192 | 4.0 | 8.0 | 0.00 | 0.00 | 0.00 | 81 | 1014.8 |
| 20260831101604 | 77 | 193 | 4.0 | 8.0 | 0.00 | 0.00 | 0.00 | 81 | 1014.8 |
| 20260831101504 | 77 | 193 | 4.0 | 8.0 | 0.00 | 0.00 | 0.00 | 81 | 1014.8 |
| 20260831101404 | 77 | 193 | 4.0 | 8.0 | 0.00 | 0.00 | 0.00 | 81 | 1014.9 |
| 20260831101304 | 77 | 194 | 4.0 | 8.0 | 0.00 | 0.00 | 0.00 | 81 | 1014.9 |
| 20260831101204 | 77 | 194 | 4.0 | 8.0 | 0.00 | 0.00 | 0.00 | 81 | 1014.9 |
| 20260831101106 | 77 | 195 | 5.0 | 8.0 | 0.00 | 0.00 | 0.00 | 80 | 1014.9 |
| 20260831101004 | 77 | 196 | 5.0 | 8.0 | 0.00 | 0.00 | 0.00 | 80 | 1014.9 |
| 20260831100804 | 77 | 198 | 4.0 | 9.0 | 0.00 | 0.00 | 0.00 | 80 | 1014.9 |
| 20260831100704 | 77 | 199 | 4.0 | 9.0 | 0.00 | 0.00 | 0.00 | 80 | 1014.9 |
| 20260831100606 | 77 | 199 | 4.0 | 9.0 | 0.00 | 0.00 | 0.00 | 80 | 1014.9 |
| 20260831100504 | 77 | 200 | 4.0 | 9.0 | 0.00 | 0.00 | 0.00 | 80 | 1014.9 |
| 20260831100405 | 77 | 201 | 4.0 | 9.0 | 0.00 | 0.00 | 0.00 | 80 | 1014.9 |
| 20260831100304 | 77 | 201 | 4.0 | 9.0 | 0.00 | 0.00 | 0.00 | 80 | 1014.9 |
| 20260831100204 | 77 | 203 | 4.0 | 9.0 | 0.00 | 0.00 | 0.00 | 80 | 1014.9 |
| 20260831100104 | 77 | 203 | 4.0 | 9.0 | 0.00 | 0.00 | 0.00 | 80 | 1014.8 |
| 20260831100004 | 77 | 204 | 4.0 | 9.0 | 0.00 | 0.00 | 0.00 | 80 | 1014.9 |
| 20260831095904 | 77 | 203 | 4.0 | 9.0 | 0.00 | 0.00 | 0.00 | 80 | 1014.9 |
| 20260831095804 | 77 | 203 | 4.0 | 9.0 | 0.00 | 0.00 | 0.00 | 80 | 1014.8 |
| 20260831095604 | 77 | 204 | 4.0 | 9.0 | 0.00 | 0.00 | 0.00 | 80 | 1014.8 |
| 20260831095505 | 77 | 204 | 4.0 | 9.0 | 0.00 | 0.00 | 0.00 | 80 | 1014.8 |
| 20260831095306 | 77 | 204 | 4.0 | 9.0 | 0.00 | 0.00 | 0.00 | 80 | 1014.8 |
| 20260831095004 | 77 | 200 | 3.0 | 7.0 | 0.00 | 0.00 | 0.00 | 79 | 1014.8 |
| 20260831094904 | 77 | 200 | 3.0 | 7.0 | 0.00 | 0.00 | 0.00 | 79 | 1014.7 |
| 20260831094804 | 77 | 200 | 4.0 | 7.0 | 0.00 | 0.00 | 0.00 | 79 | 1014.7 |
| 20260831094705 | 77 | 199 | 4.0 | 7.0 | 0.00 | 0.00 | 0.00 | 79 | 1014.7 |
| 20260831094604 | 77 | 199 | 4.0 | 7.0 | 0.00 | 0.00 | 0.00 | 79 | 1014.7 |
| 20260831094505 | 77 | 200 | 4.0 | 7.0 | 0.00 | 0.00 | 0.00 | 79 | 1014.7 |
| 20260831094404 | 77 | 198 | 4.0 | 7.0 | 0.00 | 0.00 | 0.00 | 79 | 1014.7 |
| 20260831094304 | 77 | 198 | 3.0 | 7.0 | 0.00 | 0.00 | 0.00 | 79 | 1014.7 |
| 20260831094204 | 77 | 198 | 4.0 | 7.0 | 0.00 | 0.00 | 0.00 | 79 | 1014.7 |
| 20260831094004 | 77 | 199 | 3.0 | 7.0 | 0.00 | 0.00 | 0.00 | 79 | 1014.7 |
| 20260831093904 | 77 | 197 | 3.0 | 7.0 | 0.00 | 0.00 | 0.00 | 79 | 1014.7 |
| 20260831093804 | 77 | 196 | 4.0 | 7.0 | 0.00 | 0.00 | 0.00 | 78 | 1014.7 |
| 20260831093704 | 77 | 196 | 4.0 | 7.0 | 0.00 | 0.00 | 0.00 | 78 | 1014.7 |
| 20260831093604 | 77 | 196 | 3.0 | 7.0 | 0.00 | 0.00 | 0.00 | 79 | 1014.7 |
| 20260831093504 | 77 | 195 | 3.0 | 7.0 | 0.00 | 0.00 | 0.00 | 78 | 1014.7 |
| 20260831093405 | 77 | 195 | 3.0 | 7.0 | 0.00 | 0.00 | 0.00 | 78 | 1014.8 |
| 20260831093304 | 77 | 194 | 3.0 | 7.0 | 0.00 | 0.00 | 0.00 | 78 | 1014.7 |
| 20260831093205 | 77 | 195 | 4.0 | 7.0 | 0.00 | 0.00 | 0.00 | 78 | 1014.8 |
| 20260831093104 | 77 | 192 | 4.0 | 8.0 | 0.00 | 0.00 | 0.00 | 78 | 1014.8 |
| 20260831092905 | 77 | 193 | 4.0 | 8.0 | 0.00 | 0.00 | 0.00 | 78 | 1014.8 |
| 20260831092804 | 77 | 193 | 4.0 | 8.0 | 0.00 | 0.00 | 0.00 | 78 | 1014.8 |
| 20260831092705 | 77 | 192 | 4.0 | 8.0 | 0.00 | 0.00 | 0.00 | 78 | 1014.7 |
| 20260831092604 | 77 | 192 | 4.0 | 8.0 | 0.00 | 0.00 | 0.00 | 78 | 1014.7 |
| 20260831092404 | 77 | 190 | 4.0 | 8.0 | 0.00 | 0.00 | 0.00 | 78 | 1014.8 |
| 20260831092306 | 77 | 188 | 4.0 | 8.0 | 0.00 | 0.00 | 0.00 | 78 | 1014.8 |
| 20260831092204 | 77 | 186 | 4.0 | 8.0 | 0.00 | 0.00 | 0.00 | 78 | 1014.8 |
| 20260831092104 | 77 | 185 | 4.0 | 7.0 | 0.00 | 0.00 | 0.00 | 78 | 1014.8 |
| 20260831092004 | 77 | 182 | 4.0 | 7.0 | 0.00 | 0.00 | 0.00 | 78 | 1014.8 |
| 20260831091904 | 77 | 179 | 4.0 | 7.0 | 0.00 | 0.00 | 0.00 | 78 | 1014.7 |
| 20260831091804 | 77 | 178 | 3.0 | 7.0 | 0.00 | 0.00 | 0.00 | 78 | 1014.7 |
| 20260831091704 | 77 | 177 | 3.0 | 7.0 | 0.00 | 0.00 | 0.00 | 78 | 1014.7 |
| 20260831091604 | 77 | 176 | 4.0 | 7.0 | 0.00 | 0.00 | 0.00 | 78 | 1014.7 |
| 20260831091504 | 77 | 175 | 4.0 | 6.0 | 0.00 | 0.00 | 0.00 | 78 | 1014.7 |
| 20260831091304 | 77 | 174 | 4.0 | 6.0 | 0.00 | 0.00 | 0.00 | 78 | 1014.7 |
| 20260831091204 | 77 | 175 | 4.0 | 6.0 | 0.00 | 0.00 | 0.00 | 78 | 1014.7 |
| 20260831091104 | 77 | 176 | 4.0 | 6.0 | 0.00 | 0.00 | 0.00 | 78 | 1014.7 |
| 20260831091005 | 77 | 178 | 3.0 | 6.0 | 0.00 | 0.00 | 0.00 | 77 | 1014.7 |
| 20260831090904 | 77 | 177 | 3.0 | 6.0 | 0.00 | 0.00 | 0.00 | 77 | 1014.7 |
| 20260831090704 | 77 | 174 | 4.0 | 6.0 | 0.00 | 0.00 | 0.00 | 77 | 1014.8 |
| 20260831090604 | 77 | 174 | 3.0 | 6.0 | 0.00 | 0.00 | 0.00 | 77 | 1014.8 |
| 20260831090404 | 77 | 173 | 3.0 | 6.0 | 0.00 | 0.00 | 0.00 | 77 | 1014.8 |
| 20260831090205 | 77 | 171 | 3.0 | 6.0 | 0.00 | 0.00 | 0.00 | 77 | 1014.8 |
| 20260831090005 | 77 | 167 | 3.0 | 6.0 | 0.00 | 0.00 | 0.00 | 77 | 1014.8 |
| 20260831085904 | 77 | 168 | 3.0 | 6.0 | 0.00 | 0.00 | 0.00 | 77 | 1014.8 |
| 20260831085804 | 77 | 167 | 3.0 | 6.0 | 0.00 | 0.00 | 0.00 | 77 | 1014.8 |
| 20260831085704 | 77 | 167 | 3.0 | 4.0 | 0.00 | 0.00 | 0.00 | 77 | 1014.8 |
| 20260831085604 | 77 | 165 | 2.0 | 4.0 | 0.00 | 0.00 | 0.00 | 77 | 1014.8 |
| 20260831085504 | 77 | 164 | 2.0 | 4.0 | 0.00 | 0.00 | 0.00 | 77 | 1014.8 |
| 20260831085405 | 77 | 163 | 2.0 | 4.0 | 0.00 | 0.00 | 0.00 | 77 | 1014.8 |
| 20260831085306 | 77 | 161 | 2.0 | 4.0 | 0.00 | 0.00 | 0.00 | 77 | 1014.8 |
| 20260831085204 | 77 | 160 | 2.0 | 4.0 | 0.00 | 0.00 | 0.00 | 77 | 1014.8 |
| 20260831085104 | 77 | 159 | 2.0 | 4.0 | 0.00 | 0.00 | 0.00 | 77 | 1014.8 |
| 20260831085005 | 77 | 159 | 2.0 | 4.0 | 0.00 | 0.00 | 0.00 | 76 | 1014.9 |
| 20260831084904 | 77 | 159 | 2.0 | 4.0 | 0.00 | 0.00 | 0.00 | 76 | 1014.8 |
| 20260831084704 | 77 | 159 | 2.0 | 4.0 | 0.00 | 0.00 | 0.00 | 76 | 1014.8 |
| 20260831084605 | 77 | 160 | 2.0 | 4.0 | 0.00 | 0.00 | 0.00 | 76 | 1014.7 |
| 20260831084504 | 77 | 161 | 2.0 | 4.0 | 0.00 | 0.00 | 0.00 | 76 | 1014.8 |
| 20260831084304 | 77 | 162 | 2.0 | 4.0 | 0.00 | 0.00 | 0.00 | 76 | 1014.7 |
| 20260831084204 | 77 | 163 | 2.0 | 4.0 | 0.00 | 0.00 | 0.00 | 75 | 1014.7 |
| 20260831084104 | 78 | 165 | 2.0 | 4.0 | 0.00 | 0.00 | 0.00 | 75 | 1014.7 |
| 20260831084005 | 78 | 165 | 2.0 | 4.0 | 0.00 | 0.00 | 0.00 | 75 | 1014.7 |
| 20260831083904 | 78 | 165 | 2.0 | 4.0 | 0.00 | 0.00 | 0.00 | 75 | 1014.7 |
| 20260831083804 | 78 | 166 | 2.0 | 4.0 | 0.00 | 0.00 | 0.00 | 75 | 1014.7 |
| 20260831083704 | 78 | 165 | 2.0 | 4.0 | 0.00 | 0.00 | 0.00 | 75 | 1014.8 |
| 20260831083604 | 78 | 164 | 2.0 | 4.0 | 0.00 | 0.00 | 0.00 | 75 | 1014.7 |
| 20260831083504 | 78 | 165 | 2.0 | 5.0 | 0.00 | 0.00 | 0.00 | 75 | 1014.8 |
| 20260831083304 | 78 | 166 | 3.0 | 5.0 | 0.00 | 0.00 | 0.00 | 75 | 1014.7 |
| 20260831083204 | 78 | 166 | 3.0 | 5.0 | 0.00 | 0.00 | 0.00 | 75 | 1014.7 |
| 20260831083103 | 78 | 167 | 3.0 | 5.0 | 0.00 | 0.00 | 0.00 | 75 | 1014.7 |
| 20260831083004 | 78 | 168 | 3.0 | 5.0 | 0.00 | 0.00 | 0.00 | 75 | 1014.7 |
| 20260831082904 | 78 | 169 | 3.0 | 5.0 | 0.00 | 0.00 | 0.00 | 75 | 1014.7 |
| 20260831082804 | 78 | 169 | 3.0 | 5.0 | 0.00 | 0.00 | 0.00 | 75 | 1014.6 |
| 20260831082704 | 78 | 171 | 3.0 | 5.0 | 0.00 | 0.00 | 0.00 | 75 | 1014.7 |
| 20260831082604 | 78 | 172 | 3.0 | 6.0 | 0.00 | 0.00 | 0.00 | 74 | 1014.7 |
| 20260831082504 | 78 | 171 | 3.0 | 6.0 | 0.00 | 0.00 | 0.00 | 74 | 1014.7 |
| 20260831082404 | 78 | 172 | 3.0 | 6.0 | 0.00 | 0.00 | 0.00 | 74 | 1014.7 |
| 20260831082306 | 78 | 171 | 3.0 | 6.0 | 0.00 | 0.00 | 0.00 | 74 | 1014.7 |
| 20260831082204 | 78 | 171 | 3.0 | 6.0 | 0.00 | 0.00 | 0.00 | 74 | 1014.6 |
| 20260831082104 | 78 | 170 | 3.0 | 6.0 | 0.00 | 0.00 | 0.00 | 74 | 1014.7 |
| 20260831082004 | 78 | 169 | 3.0 | 6.0 | 0.00 | 0.00 | 0.00 | 74 | 1014.7 |
| 20260831081903 | 78 | 168 | 3.0 | 6.0 | 0.00 | 0.00 | 0.00 | 74 | 1014.7 |
| 20260831081704 | 78 | 167 | 3.0 | 7.0 | 0.00 | 0.00 | 0.00 | 74 | 1014.6 |
| 20260831081504 | 78 | 165 | 3.0 | 7.0 | 0.00 | 0.00 | 0.00 | 74 | 1014.6 |
| 20260831081304 | 78 | 164 | 3.0 | 7.0 | 0.00 | 0.00 | 0.00 | 74 | 1014.6 |
| 20260831081204 | 78 | 164 | 3.0 | 7.0 | 0.00 | 0.00 | 0.00 | 74 | 1014.6 |
| 20260831081103 | 78 | 163 | 2.0 | 7.0 | 0.00 | 0.00 | 0.00 | 74 | 1014.6 |
| 20260831081004 | 78 | 162 | 3.0 | 7.0 | 0.00 | 0.00 | 0.00 | 74 | 1014.6 |
| 20260831080804 | 78 | 161 | 2.0 | 7.0 | 0.00 | 0.00 | 0.00 | 73 | 1014.7 |
| 20260831080704 | 78 | 159 | 2.0 | 4.0 | 0.00 | 0.00 | 0.00 | 73 | 1014.7 |
| 20260831080605 | 78 | 160 | 2.0 | 4.0 | 0.00 | 0.00 | 0.00 | 73 | 1014.6 |
| 20260831080503 | 79 | 159 | 2.0 | 4.0 | 0.00 | 0.00 | 0.00 | 73 | 1014.7 |
| 20260831080404 | 78 | 160 | 2.0 | 4.0 | 0.00 | 0.00 | 0.00 | 73 | 1014.7 |
| 20260831080204 | 79 | 160 | 3.0 | 5.0 | 0.00 | 0.00 | 0.00 | 73 | 1014.7 |
| 20260831080004 | 79 | 162 | 3.0 | 5.0 | 0.00 | 0.00 | 0.00 | 73 | 1014.6 |
| 20260831075903 | 79 | 163 | 3.0 | 5.0 | 0.00 | 0.00 | 0.00 | 73 | 1014.7 |
| 20260831075804 | 79 | 164 | 3.0 | 5.0 | 0.00 | 0.00 | 0.00 | 72 | 1014.7 |
| 20260831075704 | 79 | 165 | 3.0 | 5.0 | 0.00 | 0.00 | 0.00 | 72 | 1014.7 |
| 20260831075604 | 79 | 166 | 3.0 | 5.0 | 0.00 | 0.00 | 0.00 | 72 | 1014.6 |
| 20260831075405 | 79 | 167 | 3.0 | 6.0 | 0.00 | 0.00 | 0.00 | 72 | 1014.6 |
| 20260831075306 | 79 | 168 | 3.0 | 6.0 | 0.00 | 0.00 | 0.00 | 72 | 1014.6 |
| 20260831075104 | 79 | 169 | 2.0 | 6.0 | 0.00 | 0.00 | 0.00 | 72 | 1014.7 |
| 20260831075005 | 79 | 170 | 2.0 | 6.0 | 0.00 | 0.00 | 0.00 | 72 | 1014.7 |
| 20260831074905 | 79 | 174 | 2.0 | 6.0 | 0.00 | 0.00 | 0.00 | 72 | 1014.6 |
| 20260831074804 | 79 | 177 | 2.0 | 6.0 | 0.00 | 0.00 | 0.00 | 72 | 1014.6 |
| 20260831074704 | 79 | 184 | 2.0 | 6.0 | 0.00 | 0.00 | 0.00 | 72 | 1014.6 |
| 20260831074604 | 79 | 188 | 2.0 | 6.0 | 0.00 | 0.00 | 0.00 | 72 | 1014.6 |
| 20260831074504 | 79 | 192 | 2.0 | 6.0 | 0.00 | 0.00 | 0.00 | 72 | 1014.6 |
| 20260831074404 | 79 | 198 | 2.0 | 5.0 | 0.00 | 0.00 | 0.00 | 72 | 1014.6 |
| 20260831074304 | 79 | 198 | 2.0 | 5.0 | 0.00 | 0.00 | 0.00 | 72 | 1014.6 |
| 20260831074204 | 79 | 199 | 3.0 | 5.0 | 0.00 | 0.00 | 0.00 | 72 | 1014.7 |
| 20260831074104 | 79 | 200 | 3.0 | 5.0 | 0.00 | 0.00 | 0.00 | 72 | 1014.7 |
| 20260831074003 | 79 | 200 | 2.0 | 5.0 | 0.00 | 0.00 | 0.00 | 72 | 1014.7 |
| 20260831073904 | 79 | 200 | 2.0 | 5.0 | 0.00 | 0.00 | 0.00 | 72 | 1014.7 |
| 20260831073804 | 79 | 202 | 2.0 | 5.0 | 0.00 | 0.00 | 0.00 | 72 | 1014.7 |
| 20260831073705 | 79 | 202 | 1.0 | 4.0 | 0.00 | 0.00 | 0.00 | 72 | 1014.7 |
| 20260831073605 | 79 | 203 | 1.0 | 4.0 | 0.00 | 0.00 | 0.00 | 72 | 1014.7 |
| 20260831073504 | 79 | 203 | 1.0 | 4.0 | 0.00 | 0.00 | 0.00 | 72 | 1014.7 |
| 20260831073404 | 79 | 202 | 1.0 | 4.0 | 0.00 | 0.00 | 0.00 | 72 | 1014.8 |
| 20260831073304 | 79 | 205 | 0.0 | 4.0 | 0.00 | 0.00 | 0.00 | 71 | 1014.7 |
| 20260831073204 | 79 | 203 | 0.0 | 4.0 | 0.00 | 0.00 | 0.00 | 71 | 1014.7 |
| 20260831073103 | 79 | 191 | 0.0 | 1.0 | 0.00 | 0.00 | 0.00 | 71 | 1014.7 |
| 20260831073004 | 79 | 0 | 0.0 | 0.0 | 0.00 | 0.00 | 0.00 | 71 | 1014.7 |
| 20260831072804 | 79 | 0 | 0.0 | 0.0 | 0.00 | 0.00 | 0.00 | 71 | 1014.7 |
| 20260831072704 | 80 | 0 | 0.0 | 0.0 | 0.00 | 0.00 | 0.00 | 71 | 1014.7 |
| 20260831072604 | 80 | 164 | 0.0 | 2.0 | 0.00 | 0.00 | 0.00 | 71 | 1014.7 |
| 20260831072504 | 80 | 165 | 1.0 | 4.0 | 0.00 | 0.00 | 0.00 | 71 | 1014.8 |
| 20260831072404 | 80 | 169 | 1.0 | 4.0 | 0.00 | 0.00 | 0.00 | 71 | 1014.8 |
| 20260831072306 | 80 | 169 | 1.0 | 4.0 | 0.00 | 0.00 | 0.00 | 71 | 1014.7 |
| 20260831072104 | 80 | 164 | 1.0 | 4.0 | 0.00 | 0.00 | 0.00 | 70 | 1014.8 |
| 20260831072004 | 80 | 163 | 1.0 | 4.0 | 0.00 | 0.00 | 0.00 | 71 | 1014.8 |
| 20260831071904 | 80 | 162 | 1.0 | 4.0 | 0.00 | 0.00 | 0.00 | 70 | 1014.8 |
| 20260831071804 | 80 | 162 | 1.0 | 4.0 | 0.00 | 0.00 | 0.00 | 70 | 1014.8 |
| 20260831071703 | 80 | 162 | 1.0 | 4.0 | 0.00 | 0.00 | 0.00 | 70 | 1014.8 |
| 20260831071604 | 80 | 162 | 1.0 | 4.0 | 0.00 | 0.00 | 0.00 | 71 | 1014.8 |
| 20260831071503 | 80 | 161 | 1.0 | 3.0 | 0.00 | 0.00 | 0.00 | 70 | 1014.8 |
| 20260831071404 | 80 | 157 | 1.0 | 3.0 | 0.00 | 0.00 | 0.00 | 70 | 1014.8 |
| 20260831071204 | 80 | 157 | 1.0 | 3.0 | 0.00 | 0.00 | 0.00 | 70 | 1014.9 |
| 20260831071103 | 80 | 157 | 1.0 | 3.0 | 0.00 | 0.00 | 0.00 | 70 | 1014.9 |
| 20260831071004 | 80 | 157 | 1.0 | 3.0 | 0.00 | 0.00 | 0.00 | 70 | 1014.9 |
| 20260831070903 | 80 | 157 | 1.0 | 3.0 | 0.00 | 0.00 | 0.00 | 70 | 1014.9 |
| 20260831070804 | 80 | 157 | 2.0 | 3.0 | 0.00 | 0.00 | 0.00 | 70 | 1014.9 |
| 20260831070704 | 80 | 155 | 2.0 | 3.0 | 0.00 | 0.00 | 0.00 | 70 | 1014.9 |
| 20260831070604 | 80 | 155 | 2.0 | 3.0 | 0.00 | 0.00 | 0.00 | 70 | 1014.9 |
| 20260831070504 | 80 | 154 | 1.0 | 3.0 | 0.00 | 0.00 | 0.00 | 70 | 1014.9 |
| 20260831070404 | 80 | 154 | 1.0 | 3.0 | 0.00 | 0.00 | 0.00 | 70 | 1014.9 |
| 20260831070304 | 80 | 153 | 1.0 | 3.0 | 0.00 | 0.00 | 0.00 | 70 | 1014.9 |
| 20260831070204 | 80 | 153 | 1.0 | 3.0 | 0.00 | 0.00 | 0.00 | 70 | 1015.0 |
| 20260831070104 | 80 | 152 | 1.0 | 3.0 | 0.00 | 0.00 | 0.00 | 70 | 1014.9 |
| 20260831070004 | 80 | 152 | 1.0 | 3.0 | 0.00 | 0.00 | 0.00 | 70 | 1014.9 |
| 20260831065903 | 80 | 152 | 0.0 | 3.0 | 0.00 | 0.00 | 0.00 | 70 | 1014.9 |
| 20260831065804 | 80 | 149 | 0.0 | 3.0 | 0.00 | 0.00 | 0.00 | 69 | 1014.9 |
| 20260831065604 | 80 | 156 | 0.0 | 2.0 | 0.00 | 0.00 | 0.00 | 69 | 1014.8 |
| 20260831065504 | 80 | 154 | 0.0 | 2.0 | 0.00 | 0.00 | 0.00 | 69 | 1014.8 |
| 20260831065404 | 80 | 140 | 0.0 | 3.0 | 0.00 | 0.00 | 0.00 | 69 | 1014.8 |
| 20260831065306 | 80 | 147 | 1.0 | 3.0 | 0.00 | 0.00 | 0.00 | 69 | 1014.9 |
| 20260831065204 | 80 | 148 | 1.0 | 3.0 | 0.00 | 0.00 | 0.00 | 69 | 1014.9 |
| 20260831064904 | 80 | 149 | 1.0 | 3.0 | 0.00 | 0.00 | 0.00 | 69 | 1014.9 |
| 20260831064804 | 80 | 149 | 2.0 | 3.0 | 0.00 | 0.00 | 0.00 | 69 | 1014.8 |
| 20260831064703 | 80 | 149 | 2.0 | 3.0 | 0.00 | 0.00 | 0.00 | 69 | 1014.9 |
| 20260831064504 | 81 | 148 | 2.0 | 3.0 | 0.00 | 0.00 | 0.00 | 69 | 1014.8 |
| 20260831064404 | 81 | 151 | 2.0 | 3.0 | 0.00 | 0.00 | 0.00 | 69 | 1014.9 |
| 20260831064304 | 81 | 150 | 2.0 | 3.0 | 0.00 | 0.00 | 0.00 | 69 | 1014.9 |
| 20260831064204 | 81 | 149 | 2.0 | 4.0 | 0.00 | 0.00 | 0.00 | 69 | 1014.8 |
| 20260831064104 | 81 | 147 | 2.0 | 4.0 | 0.00 | 0.00 | 0.00 | 69 | 1014.8 |
| 20260831063904 | 81 | 144 | 2.0 | 4.0 | 0.00 | 0.00 | 0.00 | 69 | 1014.8 |
| 20260831063803 | 81 | 144 | 2.0 | 4.0 | 0.00 | 0.00 | 0.00 | 69 | 1014.8 |
| 20260831063604 | 81 | 143 | 1.0 | 4.0 | 0.00 | 0.00 | 0.00 | 69 | 1014.8 |
| 20260831063504 | 81 | 143 | 1.0 | 4.0 | 0.00 | 0.00 | 0.00 | 69 | 1014.8 |
| 20260831063404 | 81 | 141 | 1.0 | 4.0 | 0.00 | 0.00 | 0.00 | 69 | 1014.8 |
| 20260831063303 | 81 | 141 | 1.0 | 4.0 | 0.00 | 0.00 | 0.00 | 69 | 1014.8 |
| 20260831063204 | 81 | 140 | 1.0 | 4.0 | 0.00 | 0.00 | 0.00 | 69 | 1014.8 |
| 20260831063103 | 81 | 141 | 1.0 | 4.0 | 0.00 | 0.00 | 0.00 | 69 | 1014.8 |
| 20260831062904 | 81 | 140 | 1.0 | 4.0 | 0.00 | 0.00 | 0.00 | 69 | 1014.8 |
| 20260831062806 | 81 | 138 | 1.0 | 2.0 | 0.00 | 0.00 | 0.00 | 69 | 1014.8 |
| 20260831062704 | 81 | 135 | 1.0 | 2.0 | 0.00 | 0.00 | 0.00 | 69 | 1014.9 |
| 20260831062604 | 81 | 134 | 1.0 | 2.0 | 0.00 | 0.00 | 0.00 | 69 | 1014.8 |
| 20260831062504 | 81 | 130 | 1.0 | 3.0 | 0.00 | 0.00 | 0.00 | 69 | 1014.9 |
| 20260831062404 | 81 | 128 | 1.0 | 3.0 | 0.00 | 0.00 | 0.00 | 69 | 1014.8 |
| 20260831062306 | 81 | 124 | 1.0 | 4.0 | 0.00 | 0.00 | 0.00 | 69 | 1014.8 |
| 20260831062204 | 81 | 120 | 2.0 | 4.0 | 0.00 | 0.00 | 0.00 | 69 | 1014.8 |
| 20260831062104 | 81 | 118 | 2.0 | 4.0 | 0.00 | 0.00 | 0.00 | 69 | 1014.8 |
| 20260831062004 | 81 | 116 | 2.0 | 4.0 | 0.00 | 0.00 | 0.00 | 69 | 1014.8 |
| 20260831061904 | 81 | 115 | 2.0 | 4.0 | 0.00 | 0.00 | 0.00 | 69 | 1014.8 |
| 20260831061804 | 81 | 114 | 2.0 | 4.0 | 0.00 | 0.00 | 0.00 | 68 | 1014.8 |
| 20260831061704 | 81 | 113 | 2.0 | 4.0 | 0.00 | 0.00 | 0.00 | 68 | 1014.8 |
| 20260831061604 | 81 | 113 | 2.0 | 4.0 | 0.00 | 0.00 | 0.00 | 68 | 1014.8 |
| 20260831061504 | 81 | 113 | 2.0 | 4.0 | 0.00 | 0.00 | 0.00 | 68 | 1014.8 |
| 20260831061404 | 81 | 113 | 2.0 | 4.0 | 0.00 | 0.00 | 0.00 | 68 | 1014.8 |
| 20260831061304 | 81 | 114 | 2.0 | 3.0 | 0.00 | 0.00 | 0.00 | 68 | 1014.8 |
| 20260831061204 | 81 | 116 | 1.0 | 3.0 | 0.00 | 0.00 | 0.00 | 68 | 1014.8 |
| 20260831061103 | 81 | 118 | 1.0 | 3.0 | 0.00 | 0.00 | 0.00 | 68 | 1014.8 |
| 20260831061004 | 81 | 119 | 1.0 | 3.0 | 0.00 | 0.00 | 0.00 | 68 | 1014.8 |
| 20260831060903 | 81 | 119 | 2.0 | 4.0 | 0.00 | 0.00 | 0.00 | 67 | 1014.8 |
| 20260831060804 | 82 | 120 | 2.0 | 4.0 | 0.00 | 0.00 | 0.00 | 67 | 1014.8 |
| 20260831060704 | 82 | 120 | 2.0 | 4.0 | 0.00 | 0.00 | 0.00 | 67 | 1014.7 |
| 20260831060604 | 82 | 122 | 2.0 | 4.0 | 0.00 | 0.00 | 0.00 | 67 | 1014.8 |
| 20260831060404 | 82 | 126 | 2.0 | 4.0 | 0.00 | 0.00 | 0.00 | 67 | 1014.7 |
| 20260831060304 | 82 | 128 | 2.0 | 4.0 | 0.00 | 0.00 | 0.00 | 66 | 1014.7 |
| 20260831060204 | 82 | 129 | 2.0 | 4.0 | 0.00 | 0.00 | 0.00 | 66 | 1014.7 |
| 20260831055804 | 82 | 138 | 2.0 | 4.0 | 0.00 | 0.00 | 0.00 | 66 | 1014.7 |
| 20260831055704 | 82 | 140 | 2.0 | 4.0 | 0.00 | 0.00 | 0.00 | 66 | 1014.7 |
| 20260831055603 | 82 | 142 | 2.0 | 4.0 | 0.00 | 0.00 | 0.00 | 66 | 1014.7 |
| 20260831055504 | 82 | 145 | 2.0 | 4.0 | 0.00 | 0.00 | 0.00 | 66 | 1014.7 |
| 20260831055403 | 82 | 145 | 2.0 | 4.0 | 0.00 | 0.00 | 0.00 | 66 | 1014.7 |
| 20260831055204 | 82 | 147 | 2.0 | 4.0 | 0.00 | 0.00 | 0.00 | 66 | 1014.7 |
| 20260831055103 | 82 | 147 | 2.0 | 4.0 | 0.00 | 0.00 | 0.00 | 65 | 1014.8 |
| 20260831055004 | 82 | 146 | 2.0 | 4.0 | 0.00 | 0.00 | 0.00 | 65 | 1014.7 |
| 20260831054804 | 82 | 144 | 2.0 | 4.0 | 0.00 | 0.00 | 0.00 | 65 | 1014.7 |
| 20260831054704 | 82 | 144 | 2.0 | 4.0 | 0.00 | 0.00 | 0.00 | 65 | 1014.7 |
| 20260831054604 | 82 | 142 | 2.0 | 4.0 | 0.00 | 0.00 | 0.00 | 65 | 1014.7 |
| 20260831054504 | 83 | 142 | 2.0 | 4.0 | 0.00 | 0.00 | 0.00 | 65 | 1014.7 |
| 20260831054404 | 83 | 143 | 2.0 | 4.0 | 0.00 | 0.00 | 0.00 | 65 | 1014.7 |
| 20260831054304 | 83 | 141 | 2.0 | 4.0 | 0.00 | 0.00 | 0.00 | 65 | 1014.7 |
| 20260831054103 | 83 | 142 | 2.0 | 4.0 | 0.00 | 0.00 | 0.00 | 65 | 1014.7 |
| 20260831054004 | 83 | 142 | 2.0 | 4.0 | 0.00 | 0.00 | 0.00 | 65 | 1014.7 |
| 20260831053903 | 83 | 144 | 2.0 | 4.0 | 0.00 | 0.00 | 0.00 | 65 | 1014.7 |
| 20260831053804 | 83 | 145 | 2.0 | 4.0 | 0.00 | 0.00 | 0.00 | 65 | 1014.6 |
| 20260831053704 | 83 | 145 | 2.0 | 4.0 | 0.00 | 0.00 | 0.00 | 65 | 1014.6 |
| 20260831053603 | 83 | 147 | 2.0 | 4.0 | 0.00 | 0.00 | 0.00 | 65 | 1014.6 |
| 20260831053504 | 83 | 146 | 2.0 | 4.0 | 0.00 | 0.00 | 0.00 | 65 | 1014.6 |
| 20260831053404 | 83 | 147 | 2.0 | 4.0 | 0.00 | 0.00 | 0.00 | 64 | 1014.6 |
| 20260831053304 | 83 | 148 | 2.0 | 4.0 | 0.00 | 0.00 | 0.00 | 64 | 1014.7 |
| 20260831053204 | 83 | 149 | 2.0 | 6.0 | 0.00 | 0.00 | 0.00 | 64 | 1014.6 |
| 20260831053104 | 83 | 150 | 2.0 | 6.0 | 0.00 | 0.00 | 0.00 | 64 | 1014.6 |
| 20260831053005 | 83 | 151 | 2.0 | 6.0 | 0.00 | 0.00 | 0.00 | 64 | 1014.6 |
| 20260831052904 | 83 | 152 | 2.0 | 6.0 | 0.00 | 0.00 | 0.00 | 64 | 1014.6 |
| 20260831052604 | 83 | 154 | 3.0 | 6.0 | 0.00 | 0.00 | 0.00 | 64 | 1014.5 |
| 20260831052504 | 83 | 155 | 3.0 | 6.0 | 0.00 | 0.00 | 0.00 | 64 | 1014.5 |
| 20260831052404 | 84 | 155 | 3.0 | 7.0 | 0.00 | 0.00 | 0.00 | 64 | 1014.5 |
| 20260831052204 | 84 | 157 | 3.0 | 7.0 | 0.00 | 0.00 | 0.00 | 64 | 1014.5 |
| 20260831052105 | 84 | 156 | 3.0 | 8.0 | 0.00 | 0.00 | 0.00 | 64 | 1014.5 |
| 20260831052004 | 84 | 156 | 4.0 | 8.0 | 0.00 | 0.00 | 0.00 | 63 | 1014.5 |
| 20260831051904 | 84 | 157 | 4.0 | 8.0 | 0.00 | 0.00 | 0.00 | 63 | 1014.5 |
| 20260831051804 | 84 | 157 | 4.0 | 8.0 | 0.00 | 0.00 | 0.00 | 63 | 1014.5 |
| 20260831051504 | 84 | 158 | 4.0 | 8.0 | 0.00 | 0.00 | 0.00 | 63 | 1014.5 |
| 20260831051405 | 84 | 158 | 4.0 | 8.0 | 0.00 | 0.00 | 0.00 | 63 | 1014.5 |
| 20260831051303 | 84 | 159 | 4.0 | 8.0 | 0.00 | 0.00 | 0.00 | 63 | 1014.6 |
| 20260831051204 | 84 | 157 | 4.0 | 8.0 | 0.00 | 0.00 | 0.00 | 63 | 1014.5 |
| 20260831051104 | 84 | 157 | 4.0 | 7.0 | 0.00 | 0.00 | 0.00 | 63 | 1014.6 |
| 20260831051003 | 84 | 158 | 4.0 | 7.0 | 0.00 | 0.00 | 0.00 | 63 | 1014.6 |
| 20260831050904 | 84 | 157 | 4.0 | 7.0 | 0.00 | 0.00 | 0.00 | 63 | 1014.6 |
| 20260831050804 | 84 | 157 | 4.0 | 8.0 | 0.00 | 0.00 | 0.00 | 63 | 1014.5 |
| 20260831050705 | 84 | 157 | 4.0 | 8.0 | 0.00 | 0.00 | 0.00 | 63 | 1014.5 |
| 20260831050604 | 84 | 157 | 4.0 | 8.0 | 0.00 | 0.00 | 0.00 | 63 | 1014.5 |
| 20260831050504 | 84 | 156 | 4.0 | 8.0 | 0.00 | 0.00 | 0.00 | 62 | 1014.5 |
| 20260831050404 | 84 | 156 | 4.0 | 8.0 | 0.00 | 0.00 | 0.00 | 62 | 1014.5 |
| 20260831050303 | 84 | 155 | 5.0 | 8.0 | 0.00 | 0.00 | 0.00 | 62 | 1014.5 |
| 20260831050204 | 84 | 156 | 5.0 | 11.0 | 0.00 | 0.00 | 0.00 | 62 | 1014.5 |
| 20260831050104 | 84 | 156 | 5.0 | 11.0 | 0.00 | 0.00 | 0.00 | 62 | 1014.5 |
| 20260831050005 | 84 | 156 | 5.0 | 11.0 | 0.00 | 0.00 | 0.00 | 62 | 1014.5 |
| 20260831045903 | 84 | 155 | 5.0 | 11.0 | 0.00 | 0.00 | 0.00 | 62 | 1014.5 |
| 20260831045804 | 84 | 155 | 5.0 | 11.0 | 0.00 | 0.00 | 0.00 | 62 | 1014.5 |
| 20260831045704 | 84 | 154 | 5.0 | 11.0 | 0.00 | 0.00 | 0.00 | 62 | 1014.4 |
| 20260831045603 | 84 | 155 | 5.0 | 11.0 | 0.00 | 0.00 | 0.00 | 62 | 1014.4 |
| 20260831045505 | 84 | 154 | 5.0 | 11.0 | 0.00 | 0.00 | 0.00 | 62 | 1014.5 |
| 20260831045404 | 85 | 154 | 5.0 | 11.0 | 0.00 | 0.00 | 0.00 | 62 | 1014.4 |
| 20260831045306 | 85 | 156 | 5.0 | 11.0 | 0.00 | 0.00 | 0.00 | 62 | 1014.4 |
| 20260831045204 | 85 | 156 | 5.0 | 10.0 | 0.00 | 0.00 | 0.00 | 62 | 1014.5 |
| 20260831045104 | 85 | 158 | 5.0 | 10.0 | 0.00 | 0.00 | 0.00 | 62 | 1014.4 |
| 20260831045004 | 85 | 159 | 5.0 | 10.0 | 0.00 | 0.00 | 0.00 | 61 | 1014.5 |
| 20260831044904 | 85 | 160 | 5.0 | 9.0 | 0.00 | 0.00 | 0.00 | 61 | 1014.4 |
| 20260831044804 | 85 | 160 | 5.0 | 10.0 | 0.00 | 0.00 | 0.00 | 61 | 1014.4 |
| 20260831044603 | 85 | 161 | 6.0 | 10.0 | 0.00 | 0.00 | 0.00 | 61 | 1014.4 |
| 20260831044504 | 85 | 161 | 6.0 | 10.0 | 0.00 | 0.00 | 0.00 | 61 | 1014.4 |
| 20260831044404 | 85 | 161 | 6.0 | 10.0 | 0.00 | 0.00 | 0.00 | 61 | 1014.4 |
| 20260831044304 | 85 | 160 | 5.0 | 10.0 | 0.00 | 0.00 | 0.00 | 61 | 1014.4 |
| 20260831044103 | 85 | 158 | 5.0 | 10.0 | 0.00 | 0.00 | 0.00 | 61 | 1014.4 |
| 20260831044004 | 85 | 157 | 5.0 | 10.0 | 0.00 | 0.00 | 0.00 | 61 | 1014.3 |
| 20260831043903 | 85 | 158 | 5.0 | 10.0 | 0.00 | 0.00 | 0.00 | 61 | 1014.4 |
| 20260831043804 | 85 | 159 | 6.0 | 10.0 | 0.00 | 0.00 | 0.00 | 61 | 1014.4 |
| 20260831043604 | 85 | 160 | 6.0 | 11.0 | 0.00 | 0.00 | 0.00 | 61 | 1014.4 |
| 20260831043505 | 85 | 161 | 6.0 | 11.0 | 0.00 | 0.00 | 0.00 | 61 | 1014.4 |
| 20260831043404 | 85 | 162 | 6.0 | 11.0 | 0.00 | 0.00 | 0.00 | 60 | 1014.4 |
| 20260831043303 | 85 | 163 | 6.0 | 11.0 | 0.00 | 0.00 | 0.00 | 60 | 1014.4 |
| 20260831043204 | 85 | 163 | 6.0 | 12.0 | 0.00 | 0.00 | 0.00 | 60 | 1014.4 |
| 20260831042904 | 85 | 163 | 7.0 | 13.0 | 0.00 | 0.00 | 0.00 | 60 | 1014.4 |
| 20260831042804 | 85 | 162 | 6.0 | 13.0 | 0.00 | 0.00 | 0.00 | 60 | 1014.4 |
| 20260831042704 | 85 | 160 | 7.0 | 13.0 | 0.00 | 0.00 | 0.00 | 60 | 1014.3 |
| 20260831042604 | 85 | 160 | 7.0 | 14.0 | 0.00 | 0.00 | 0.00 | 60 | 1014.3 |
| 20260831042503 | 85 | 160 | 7.0 | 14.0 | 0.00 | 0.00 | 0.00 | 60 | 1014.3 |
| 20260831042306 | 85 | 160 | 7.0 | 14.0 | 0.00 | 0.00 | 0.00 | 60 | 1014.3 |
| 20260831042103 | 85 | 158 | 7.0 | 14.0 | 0.00 | 0.00 | 0.00 | 60 | 1014.3 |
| 20260831042004 | 85 | 157 | 7.0 | 14.0 | 0.00 | 0.00 | 0.00 | 60 | 1014.3 |
| 20260831041903 | 85 | 157 | 6.0 | 14.0 | 0.00 | 0.00 | 0.00 | 60 | 1014.3 |
| 20260831041804 | 85 | 156 | 6.0 | 14.0 | 0.00 | 0.00 | 0.00 | 60 | 1014.3 |
| 20260831041703 | 85 | 157 | 5.0 | 14.0 | 0.00 | 0.00 | 0.00 | 60 | 1014.3 |
| 20260831041604 | 85 | 155 | 5.0 | 11.0 | 0.00 | 0.00 | 0.00 | 60 | 1014.3 |
| 20260831041504 | 85 | 154 | 5.0 | 11.0 | 0.00 | 0.00 | 0.00 | 60 | 1014.3 |
| 20260831041204 | 85 | 151 | 5.0 | 9.0 | 0.00 | 0.00 | 0.00 | 60 | 1014.3 |
| 20260831041103 | 85 | 151 | 5.0 | 9.0 | 0.00 | 0.00 | 0.00 | 59 | 1014.3 |
| 20260831040903 | 85 | 152 | 5.0 | 10.0 | 0.00 | 0.00 | 0.00 | 59 | 1014.2 |
| 20260831040704 | 85 | 153 | 6.0 | 11.0 | 0.00 | 0.00 | 0.00 | 59 | 1014.2 |
| 20260831040604 | 85 | 153 | 6.0 | 11.0 | 0.00 | 0.00 | 0.00 | 59 | 1014.2 |
| 20260831040504 | 85 | 154 | 6.0 | 11.0 | 0.00 | 0.00 | 0.00 | 58 | 1014.2 |
| 20260831040404 | 85 | 154 | 6.0 | 11.0 | 0.00 | 0.00 | 0.00 | 58 | 1014.2 |
| 20260831040303 | 85 | 154 | 6.0 | 11.0 | 0.00 | 0.00 | 0.00 | 58 | 1014.2 |
| 20260831040204 | 85 | 154 | 6.0 | 11.0 | 0.00 | 0.00 | 0.00 | 58 | 1014.2 |
| 20260831040103 | 85 | 156 | 6.0 | 15.0 | 0.00 | 0.00 | 0.00 | 58 | 1014.2 |
| 20260831040004 | 85 | 156 | 6.0 | 15.0 | 0.00 | 0.00 | 0.00 | 58 | 1014.1 |
| 20260831035903 | 85 | 155 | 6.0 | 15.0 | 0.00 | 0.00 | 0.00 | 58 | 1014.1 |
| 20260831035604 | 86 | 153 | 6.0 | 15.0 | 0.00 | 0.00 | 0.00 | 58 | 1014.1 |
| 20260831035404 | 86 | 154 | 6.0 | 15.0 | 0.00 | 0.00 | 0.00 | 58 | 1014.1 |
| 20260831035204 | 86 | 154 | 7.0 | 15.0 | 0.00 | 0.00 | 0.00 | 58 | 1014.1 |
| 20260831035103 | 86 | 152 | 7.0 | 12.0 | 0.00 | 0.00 | 0.00 | 57 | 1014.0 |
| 20260831035004 | 86 | 151 | 7.0 | 12.0 | 0.00 | 0.00 | 0.00 | 57 | 1014.0 |
| 20260831034904 | 86 | 151 | 7.0 | 12.0 | 0.00 | 0.00 | 0.00 | 57 | 1014.0 |
| 20260831034804 | 86 | 152 | 7.0 | 12.0 | 0.00 | 0.00 | 0.00 | 57 | 1014.0 |
| 20260831034704 | 86 | 151 | 7.0 | 12.0 | 0.00 | 0.00 | 0.00 | 57 | 1014.0 |
| 20260831034604 | 86 | 153 | 7.0 | 12.0 | 0.00 | 0.00 | 0.00 | 57 | 1013.9 |
| 20260831034504 | 86 | 152 | 7.0 | 12.0 | 0.00 | 0.00 | 0.00 | 57 | 1013.9 |
| 20260831034404 | 86 | 151 | 7.0 | 12.0 | 0.00 | 0.00 | 0.00 | 57 | 1013.9 |
| 20260831034304 | 86 | 149 | 7.0 | 14.0 | 0.00 | 0.00 | 0.00 | 57 | 1013.9 |
| 20260831034204 | 86 | 150 | 7.0 | 14.0 | 0.00 | 0.00 | 0.00 | 56 | 1013.9 |
| 20260831034103 | 86 | 152 | 7.0 | 14.0 | 0.00 | 0.00 | 0.00 | 56 | 1013.9 |
| 20260831033903 | 86 | 152 | 7.0 | 14.0 | 0.00 | 0.00 | 0.00 | 56 | 1013.9 |
| 20260831033803 | 86 | 151 | 7.0 | 14.0 | 0.00 | 0.00 | 0.00 | 56 | 1013.9 |
| 20260831033704 | 86 | 153 | 7.0 | 14.0 | 0.00 | 0.00 | 0.00 | 56 | 1013.9 |
| 20260831033604 | 86 | 151 | 7.0 | 14.0 | 0.00 | 0.00 | 0.00 | 55 | 1013.9 |
| 20260831033504 | 86 | 153 | 7.0 | 14.0 | 0.00 | 0.00 | 0.00 | 55 | 1013.9 |
| 20260831033304 | 86 | 154 | 7.0 | 13.0 | 0.00 | 0.00 | 0.00 | 55 | 1013.9 |
| 20260831033203 | 86 | 153 | 6.0 | 13.0 | 0.00 | 0.00 | 0.00 | 55 | 1013.9 |
| 20260831033104 | 86 | 152 | 6.0 | 11.0 | 0.00 | 0.00 | 0.00 | 55 | 1013.9 |
| 20260831032804 | 86 | 151 | 6.0 | 11.0 | 0.00 | 0.00 | 0.00 | 54 | 1013.8 |
| 20260831032604 | 86 | 152 | 6.0 | 11.0 | 0.00 | 0.00 | 0.00 | 54 | 1013.9 |
| 20260831032503 | 86 | 151 | 7.0 | 11.0 | 0.00 | 0.00 | 0.00 | 54 | 1013.8 |
| 20260831032404 | 86 | 151 | 6.0 | 11.0 | 0.00 | 0.00 | 0.00 | 53 | 1013.8 |
| 20260831032306 | 86 | 150 | 7.0 | 11.0 | 0.00 | 0.00 | 0.00 | 53 | 1013.8 |
| 20260831032204 | 86 | 149 | 7.0 | 12.0 | 0.00 | 0.00 | 0.00 | 53 | 1013.8 |
| 20260831032103 | 86 | 147 | 7.0 | 14.0 | 0.00 | 0.00 | 0.00 | 53 | 1013.8 |
| 20260831031803 | 86 | 145 | 7.0 | 14.0 | 0.00 | 0.00 | 0.00 | 52 | 1013.8 |
| 20260831031704 | 86 | 144 | 7.0 | 14.0 | 0.00 | 0.00 | 0.00 | 52 | 1013.8 |
| 20260831031604 | 87 | 142 | 7.0 | 14.0 | 0.00 | 0.00 | 0.00 | 52 | 1013.8 |
| 20260831031504 | 87 | 142 | 6.0 | 14.0 | 0.00 | 0.00 | 0.00 | 52 | 1013.8 |
| 20260831031403 | 87 | 140 | 6.0 | 14.0 | 0.00 | 0.00 | 0.00 | 52 | 1013.7 |
| 20260831031304 | 87 | 139 | 6.0 | 14.0 | 0.00 | 0.00 | 0.00 | 52 | 1013.8 |
| 20260831031203 | 87 | 138 | 5.0 | 14.0 | 0.00 | 0.00 | 0.00 | 51 | 1013.8 |
| 20260831031103 | 86 | 137 | 5.0 | 14.0 | 0.00 | 0.00 | 0.00 | 51 | 1013.7 |
| 20260831030804 | 86 | 135 | 4.0 | 14.0 | 0.00 | 0.00 | 0.00 | 50 | 1013.7 |
| 20260831030703 | 86 | 131 | 3.0 | 14.0 | 0.00 | 0.00 | 0.00 | 50 | 1013.6 |
| 20260831030604 | 86 | 127 | 3.0 | 7.0 | 0.00 | 0.00 | 0.00 | 50 | 1013.6 |
| 20260831030504 | 86 | 124 | 3.0 | 7.0 | 0.00 | 0.00 | 0.00 | 50 | 1013.5 |
| 20260831030404 | 86 | 124 | 4.0 | 7.0 | 0.00 | 0.00 | 0.00 | 50 | 1013.5 |
| 20260831030305 | 86 | 122 | 3.0 | 7.0 | 0.00 | 0.00 | 0.00 | 50 | 1013.6 |
| 20260831030203 | 86 | 122 | 3.0 | 7.0 | 0.00 | 0.00 | 0.00 | 50 | 1013.5 |
| 20260831030104 | 86 | 122 | 3.0 | 6.0 | 0.00 | 0.00 | 0.00 | 50 | 1013.5 |
| 20260831030003 | 86 | 122 | 4.0 | 6.0 | 0.00 | 0.00 | 0.00 | 50 | 1013.5 |
| 20260831025703 | 86 | 124 | 4.0 | 8.0 | 0.00 | 0.00 | 0.00 | 50 | 1013.4 |
| 20260831025604 | 86 | 125 | 4.0 | 8.0 | 0.00 | 0.00 | 0.00 | 50 | 1013.4 |
| 20260831025503 | 86 | 125 | 4.0 | 8.0 | 0.00 | 0.00 | 0.00 | 50 | 1013.4 |
| 20260831025404 | 86 | 124 | 3.0 | 8.0 | 0.00 | 0.00 | 0.00 | 50 | 1013.4 |
| 20260831025306 | 86 | 125 | 4.0 | 8.0 | 0.00 | 0.00 | 0.00 | 50 | 1013.3 |
| 20260831025204 | 86 | 124 | 4.0 | 8.0 | 0.00 | 0.00 | 0.00 | 50 | 1013.4 |
| 20260831025104 | 86 | 125 | 4.0 | 8.0 | 0.00 | 0.00 | 0.00 | 50 | 1013.4 |
| 20260831024904 | 87 | 124 | 4.0 | 8.0 | 0.00 | 0.00 | 0.00 | 50 | 1013.3 |
| 20260831024803 | 86 | 123 | 4.0 | 8.0 | 0.00 | 0.00 | 0.00 | 49 | 1013.3 |
| 20260831024704 | 87 | 123 | 4.0 | 8.0 | 0.00 | 0.00 | 0.00 | 49 | 1013.3 |
| 20260831024604 | 87 | 122 | 4.0 | 8.0 | 0.00 | 0.00 | 0.00 | 49 | 1013.3 |
| 20260831024504 | 87 | 123 | 4.0 | 8.0 | 0.00 | 0.00 | 0.00 | 49 | 1013.3 |
| 20260831024404 | 87 | 123 | 4.0 | 8.0 | 0.00 | 0.00 | 0.00 | 49 | 1013.3 |
| 20260831024303 | 87 | 122 | 4.0 | 8.0 | 0.00 | 0.00 | 0.00 | 49 | 1013.3 |
| 20260831024204 | 87 | 122 | 3.0 | 7.0 | 0.00 | 0.00 | 0.00 | 49 | 1013.3 |
| 20260831024004 | 87 | 121 | 3.0 | 8.0 | 0.00 | 0.00 | 0.00 | 49 | 1013.2 |
| 20260831023903 | 87 | 122 | 3.0 | 8.0 | 0.00 | 0.00 | 0.00 | 49 | 1013.2 |
| 20260831023804 | 87 | 121 | 3.0 | 8.0 | 0.00 | 0.00 | 0.00 | 49 | 1013.2 |
| 20260831023703 | 87 | 122 | 3.0 | 8.0 | 0.00 | 0.00 | 0.00 | 49 | 1013.2 |
| 20260831023604 | 87 | 122 | 3.0 | 8.0 | 0.00 | 0.00 | 0.00 | 49 | 1013.2 |
| 20260831023504 | 87 | 121 | 3.0 | 8.0 | 0.00 | 0.00 | 0.00 | 49 | 1013.2 |
| 20260831023404 | 87 | 122 | 3.0 | 8.0 | 0.00 | 0.00 | 0.00 | 49 | 1013.2 |
| 20260831023203 | 87 | 122 | 3.0 | 8.0 | 0.00 | 0.00 | 0.00 | 49 | 1013.1 |
| 20260831023104 | 87 | 121 | 3.0 | 8.0 | 0.00 | 0.00 | 0.00 | 49 | 1013.1 |
| 20260831023004 | 87 | 119 | 3.0 | 5.0 | 0.00 | 0.00 | 0.00 | 49 | 1013.1 |
| 20260831022805 | 87 | 118 | 2.0 | 5.0 | 0.00 | 0.00 | 0.00 | 49 | 1013.1 |
| 20260831022706 | 87 | 119 | 2.0 | 5.0 | 0.00 | 0.00 | 0.00 | 49 | 1013.0 |
| 20260831022605 | 87 | 118 | 2.0 | 5.0 | 0.00 | 0.00 | 0.00 | 49 | 1013.0 |
| 20260831022506 | 87 | 118 | 2.0 | 5.0 | 0.00 | 0.00 | 0.00 | 49 | 1013.0 |
| 20260831022405 | 87 | 119 | 2.0 | 5.0 | 0.00 | 0.00 | 0.00 | 49 | 1013.0 |
| 20260831022306 | 87 | 119 | 2.0 | 5.0 | 0.00 | 0.00 | 0.00 | 48 | 1012.9 |
| 20260831022205 | 87 | 122 | 2.0 | 5.0 | 0.00 | 0.00 | 0.00 | 48 | 1012.9 |
| 20260831022106 | 87 | 125 | 2.0 | 5.0 | 0.00 | 0.00 | 0.00 | 48 | 1012.9 |
| 20260831022005 | 87 | 128 | 2.0 | 5.0 | 0.00 | 0.00 | 0.00 | 48 | 1012.9 |
| 20260831021906 | 87 | 129 | 2.0 | 5.0 | 0.00 | 0.00 | 0.00 | 48 | 1012.9 |
| 20260831021805 | 87 | 129 | 2.0 | 5.0 | 0.00 | 0.00 | 0.00 | 48 | 1012.8 |
| 20260831021706 | 87 | 130 | 2.0 | 5.0 | 0.00 | 0.00 | 0.00 | 48 | 1012.9 |
| 20260831021605 | 87 | 130 | 2.0 | 5.0 | 0.00 | 0.00 | 0.00 | 48 | 1012.9 |
| 20260831021406 | 87 | 129 | 3.0 | 6.0 | 0.00 | 0.00 | 0.00 | 48 | 1012.9 |
| 20260831021305 | 87 | 128 | 3.0 | 6.0 | 0.00 | 0.00 | 0.00 | 48 | 1012.9 |
| 20260831021205 | 87 | 125 | 3.0 | 6.0 | 0.00 | 0.00 | 0.00 | 48 | 1012.9 |
| 20260831021106 | 87 | 122 | 3.0 | 6.0 | 0.00 | 0.00 | 0.00 | 48 | 1012.8 |
| 20260831020906 | 87 | 112 | 3.0 | 6.0 | 0.00 | 0.00 | 0.00 | 47 | 1012.8 |
| 20260831020705 | 87 | 111 | 3.0 | 6.0 | 0.00 | 0.00 | 0.00 | 47 | 1012.9 |
| 20260831020605 | 87 | 111 | 3.0 | 6.0 | 0.00 | 0.00 | 0.00 | 47 | 1012.9 |
| 20260831020505 | 87 | 111 | 2.0 | 6.0 | 0.00 | 0.00 | 0.00 | 47 | 1012.8 |